Wetterdaten: Samstag, 02.07.2016
Datum Zeit Temp. Aussen Temp. o. S. +5cm Feuchte Auss BlattFeu 1 Luftdruck Regen Sonnenschein Regendauer Solar Windben Empfang
02.07.2016 00:00 19,5 C 19,4 C 17,8 C 82 % 0 lf 1009,7 hPa 0,0 l/m 0 min 0 min 0 W/m 20,9 km/h (4 Bft) 97,87 %
02.07.2016 00:02 19,5 C 19,4 C 17,8 C 83 % 0 lf 1009,7 hPa 0,0 l/m 0 min 0 min 0 W/m 23,0 km/h (4 Bft) 97,56 %
02.07.2016 00:06 19,5 C 19,4 C 17,8 C 83 % 0 lf 1009,7 hPa 0,0 l/m 0 min 0 min 0 W/m 20,9 km/h (4 Bft) 96,81 %
02.07.2016 00:08 19,5 C 19,4 C 17,8 C 83 % 0 lf 1009,8 hPa 0,0 l/m 0 min 0 min 0 W/m 14,6 km/h (3 Bft) 97,87 %
02.07.2016 00:10 19,4 C 19,4 C 17,8 C 83 % 0 lf 1009,8 hPa 0,0 l/m 0 min 0 min 0 W/m 14,6 km/h (3 Bft) 93,48 %
02.07.2016 00:12 19,4 C 18,9 C 17,8 C 83 % 0 lf 1009,8 hPa 0,0 l/m 0 min 0 min 0 W/m 23,0 km/h (4 Bft) 97,87 %
02.07.2016 00:14 19,4 C 18,9 C 17,8 C 83 % 0 lf 1009,8 hPa 0,0 l/m 0 min 0 min 0 W/m 20,9 km/h (4 Bft) 95,74 %
02.07.2016 00:16 19,4 C 18,9 C 17,2 C 83 % 0 lf 1009,8 hPa 0,0 l/m 0 min 0 min 0 W/m 10,5 km/h (2 Bft) 95,74 %
02.07.2016 00:18 19,4 C 18,9 C 17,2 C 83 % 0 lf 1009,7 hPa 0,0 l/m 0 min 0 min 0 W/m 14,6 km/h (3 Bft) 93,62 %
02.07.2016 00:20 19,3 C 18,9 C 17,2 C 83 % 0 lf 1009,7 hPa 0,0 l/m 0 min 0 min 0 W/m 12,6 km/h (3 Bft) 97,87 %
02.07.2016 00:22 19,3 C 18,9 C 17,2 C 84 % 0 lf 1009,6 hPa 0,0 l/m 0 min 0 min 0 W/m 10,5 km/h (2 Bft) 100,00 %
02.07.2016 00:24 19,2 C 18,9 C 17,2 C 84 % 0 lf 1009,6 hPa 0,0 l/m 0 min 0 min 0 W/m 12,6 km/h (3 Bft) 95,74 %
02.07.2016 00:26 19,2 C 18,9 C 17,2 C 84 % 0 lf 1009,5 hPa 0,0 l/m 0 min 2 min 0 W/m 10,5 km/h (2 Bft) 97,87 %
02.07.2016 00:28 19,2 C 18,3 C 17,2 C 84 % 2 lf 1009,6 hPa 0,0 l/m 0 min 2 min 0 W/m 10,5 km/h (2 Bft) 93,62 %
02.07.2016 00:30 19,1 C 18,3 C 16,7 C 84 % 13 lf 1009,6 hPa 0,0 l/m 0 min 2 min 0 W/m 6,3 km/h (2 Bft) 93,62 %
02.07.2016 00:32 19,1 C 17,8 C 16,7 C 84 % 15 lf 1009,8 hPa 0,0 l/m 0 min 2 min 0 W/m 10,5 km/h (2 Bft) 95,74 %
02.07.2016 00:34 19,1 C 17,8 C 16,1 C 85 % 15 lf 1009,8 hPa 0,0 l/m 0 min 2 min 0 W/m 14,6 km/h (3 Bft) 95,65 %
02.07.2016 00:36 19,1 C 17,2 C 16,1 C 85 % 15 lf 1009,8 hPa 0,2 l/m 0 min 2 min 0 W/m 8,4 km/h (2 Bft) 95,74 %
02.07.2016 00:38 19,0 C 16,7 C 15,6 C 86 % 15 lf 1009,8 hPa 0,4 l/m 0 min 2 min 0 W/m 12,6 km/h (3 Bft) 93,62 %
02.07.2016 00:40 19,0 C 16,7 C 15,6 C 86 % 15 lf 1009,8 hPa 0,4 l/m 0 min 2 min 0 W/m 12,6 km/h (3 Bft) 95,74 %
02.07.2016 00:42 18,9 C 16,7 C 15,6 C 87 % 15 lf 1009,7 hPa 0,4 l/m 0 min 2 min 0 W/m 10,5 km/h (2 Bft) 93,62 %
02.07.2016 00:44 18,9 C 16,7 C 15,6 C 87 % 15 lf 1009,7 hPa 0,0 l/m 0 min 2 min 0 W/m 10,5 km/h (2 Bft) 93,62 %
02.07.2016 00:46 18,8 C 16,7 C 15,6 C 87 % 15 lf 1009,5 hPa 0,2 l/m 0 min 2 min 0 W/m 6,3 km/h (2 Bft) 91,30 %
02.07.2016 00:48 18,8 C 16,7 C 15,6 C 87 % 15 lf 1009,6 hPa 0,0 l/m 0 min 0 min 0 W/m 4,2 km/h (1 Bft) 95,74 %
02.07.2016 00:50 18,7 C 16,7 C 15,6 C 87 % 15 lf 1009,6 hPa 0,0 l/m 0 min 0 min 0 W/m 6,3 km/h (2 Bft) 93,62 %
02.07.2016 00:52 18,7 C 16,7 C 15,6 C 88 % 15 lf 1009,6 hPa 0,0 l/m 0 min 0 min 0 W/m 6,3 km/h (2 Bft) 93,62 %
02.07.2016 00:54 18,6 C 16,7 C 15,6 C 88 % 15 lf 1009,7 hPa 0,0 l/m 0 min 0 min 0 W/m 4,2 km/h (1 Bft) 93,62 %
02.07.2016 00:56 18,6 C 16,7 C 15,6 C 88 % 15 lf 1009,7 hPa 0,0 l/m 0 min 0 min 0 W/m 2,1 km/h (1 Bft) 86,96 %
02.07.2016 00:58 18,5 C 16,7 C 15,6 C 88 % 15 lf 1009,7 hPa 0,0 l/m 0 min 0 min 0 W/m 6,3 km/h (2 Bft) 93,62 %
02.07.2016 01:00 18,5 C 16,7 C 15,6 C 89 % 15 lf 1009,7 hPa 0,0 l/m 0 min 0 min 0 W/m 6,3 km/h (2 Bft) 93,62 %
02.07.2016 01:02 18,4 C 16,7 C 15,6 C 89 % 15 lf 1009,7 hPa 0,0 l/m 0 min 0 min 0 W/m 2,1 km/h (1 Bft) 91,49 %
02.07.2016 01:04 18,4 C 16,7 C 15,6 C 89 % 15 lf 1009,7 hPa 0,0 l/m 0 min 0 min 0 W/m 2,1 km/h (1 Bft) 89,36 %
02.07.2016 01:06 18,3 C 16,7 C 15,6 C 89 % 15 lf 1009,7 hPa 0,0 l/m 0 min 0 min 0 W/m 0,0 km/h (0 Bft) 89,36 %
02.07.2016 01:08 18,3 C 16,7 C 15,6 C 90 % 15 lf 1009,7 hPa 0,0 l/m 0 min 2 min 0 W/m 2,1 km/h (1 Bft) 86,96 %
02.07.2016 01:10 18,2 C 16,7 C 15,6 C 90 % 15 lf 1009,7 hPa 0,0 l/m 0 min 2 min 0 W/m 2,1 km/h (1 Bft) 93,62 %
02.07.2016 01:12 18,2 C 16,7 C 15,6 C 90 % 15 lf 1009,7 hPa 0,0 l/m 0 min 0 min 0 W/m 4,2 km/h (1 Bft) 95,74 %
02.07.2016 01:14 18,2 C 16,7 C 15,6 C 90 % 15 lf 1009,8 hPa 0,0 l/m 0 min 2 min 0 W/m 4,2 km/h (1 Bft) 91,49 %
02.07.2016 01:16 18,2 C 16,7 C 15,6 C 90 % 15 lf 1009,9 hPa 0,0 l/m 0 min 2 min 0 W/m 8,4 km/h (2 Bft) 97,87 %
02.07.2016 01:18 18,1 C 16,7 C 15,6 C 90 % 15 lf 1009,9 hPa 0,6 l/m 0 min 2 min 0 W/m 8,4 km/h (2 Bft) 95,74 %
02.07.2016 01:20 18,1 C 16,7 C 15,6 C 91 % 15 lf 1009,9 hPa 0,2 l/m 0 min 2 min 0 W/m 14,6 km/h (3 Bft) 91,30 %
02.07.2016 01:22 18,0 C 16,7 C 15,6 C 91 % 15 lf 1009,9 hPa 0,2 l/m 0 min 2 min 0 W/m 16,7 km/h (3 Bft) 95,74 %
02.07.2016 01:24 17,9 C 16,1 C 15,6 C 91 % 15 lf 1009,8 hPa 0,0 l/m 0 min 2 min 0 W/m 16,7 km/h (3 Bft) 93,62 %
02.07.2016 01:26 17,8 C 16,1 C 15,0 C 91 % 15 lf 1009,8 hPa 0,2 l/m 0 min 2 min 0 W/m 23,0 km/h (4 Bft) 93,62 %
02.07.2016 01:28 17,7 C 16,1 C 15,0 C 91 % 15 lf 1009,8 hPa 0,2 l/m 0 min 2 min 0 W/m 16,7 km/h (3 Bft) 95,74 %
02.07.2016 01:30 17,6 C 15,6 C 15,0 C 92 % 15 lf 1009,8 hPa 0,0 l/m 0 min 2 min 0 W/m 37,7 km/h (5 Bft) 93,62 %
02.07.2016 01:32 17,4 C 15,6 C 15,0 C 91 % 15 lf 1009,8 hPa 0,0 l/m 0 min 2 min 0 W/m 25,1 km/h (4 Bft) 95,65 %
02.07.2016 01:34 17,3 C 15,6 C 15,0 C 92 % 15 lf 1009,8 hPa 0,0 l/m 0 min 0 min 0 W/m 25,1 km/h (4 Bft) 95,74 %
02.07.2016 01:36 17,1 C 15,6 C 14,4 C 92 % 15 lf 1010,0 hPa 0,0 l/m 0 min 2 min 0 W/m 20,9 km/h (4 Bft) 93,62 %
02.07.2016 01:38 17,0 C 15,6 C 14,4 C 92 % 15 lf 1010,0 hPa 0,0 l/m 0 min 0 min 0 W/m 23,0 km/h (4 Bft) 97,87 %
02.07.2016 01:40 16,9 C 15,6 C 14,4 C 92 % 15 lf 1010,1 hPa 0,0 l/m 0 min 0 min 0 W/m 25,1 km/h (4 Bft) 95,74 %
02.07.2016 01:42 16,8 C 15,6 C 14,4 C 92 % 15 lf 1010,0 hPa 0,0 l/m 0 min 0 min 0 W/m 18,8 km/h (3 Bft) 97,87 %
02.07.2016 01:44 16,7 C 15,6 C 14,4 C 92 % 15 lf 1010,1 hPa 0,0 l/m 0 min 0 min 0 W/m 18,8 km/h (3 Bft) 97,83 %
02.07.2016 01:46 16,6 C 15,6 C 14,4 C 92 % 15 lf 1010,0 hPa 0,0 l/m 0 min 0 min 0 W/m 18,8 km/h (3 Bft) 97,87 %
02.07.2016 01:48 16,6 C 15,6 C 14,4 C 92 % 15 lf 1010,1 hPa 0,0 l/m 0 min 2 min 0 W/m 14,6 km/h (3 Bft) 95,74 %
02.07.2016 01:50 16,5 C 15,6 C 14,4 C 93 % 15 lf 1010,1 hPa 0,0 l/m 0 min 2 min 0 W/m 18,8 km/h (3 Bft) 95,74 %
02.07.2016 01:52 16,4 C 15,6 C 14,4 C 93 % 15 lf 1010,1 hPa 0,0 l/m 0 min 2 min 0 W/m 16,7 km/h (3 Bft) 97,87 %
02.07.2016 01:54 16,4 C 15,6 C 14,4 C 93 % 15 lf 1010,0 hPa 0,0 l/m 0 min 2 min 0 W/m 18,8 km/h (3 Bft) 97,87 %
02.07.2016 01:56 16,3 C 15,0 C 14,4 C 93 % 15 lf 1010,0 hPa 0,0 l/m 0 min 2 min 0 W/m 8,4 km/h (2 Bft) 97,83 %
02.07.2016 01:58 16,3 C 15,6 C 14,4 C 93 % 15 lf 1010,0 hPa 0,2 l/m 0 min 2 min 0 W/m 23,0 km/h (4 Bft) 97,87 %
02.07.2016 02:00 16,3 C 15,0 C 14,4 C 93 % 15 lf 1009,9 hPa 0,0 l/m 0 min 2 min 0 W/m 20,9 km/h (4 Bft) 97,87 %
02.07.2016 02:02 16,2 C 15,0 C 14,4 C 93 % 15 lf 1009,9 hPa 0,0 l/m 0 min 2 min 0 W/m 16,7 km/h (3 Bft) 95,74 %
02.07.2016 02:04 16,2 C 15,0 C 14,4 C 93 % 15 lf 1009,9 hPa 0,0 l/m 0 min 2 min 0 W/m 10,5 km/h (2 Bft) 95,74 %
02.07.2016 02:06 16,1 C 15,0 C 14,4 C 93 % 15 lf 1009,8 hPa 0,0 l/m 0 min 2 min 0 W/m 14,6 km/h (3 Bft) 97,87 %
02.07.2016 02:08 16,1 C 15,0 C 13,9 C 93 % 15 lf 1009,9 hPa 0,0 l/m 0 min 2 min 0 W/m 20,9 km/h (4 Bft) 97,83 %
02.07.2016 02:10 16,0 C 15,0 C 13,9 C 93 % 15 lf 1010,0 hPa 0,2 l/m 0 min 2 min 0 W/m 25,1 km/h (4 Bft) 95,74 %
02.07.2016 02:12 15,9 C 15,0 C 13,9 C 94 % 15 lf 1010,1 hPa 0,0 l/m 0 min 2 min 0 W/m 18,8 km/h (3 Bft) 97,87 %
02.07.2016 02:14 15,9 C 15,0 C 13,9 C 94 % 15 lf 1010,1 hPa 0,0 l/m 0 min 2 min 0 W/m 23,0 km/h (4 Bft) 95,74 %
02.07.2016 02:16 15,8 C 15,0 C 13,9 C 94 % 15 lf 1010,2 hPa 0,2 l/m 0 min 2 min 0 W/m 20,9 km/h (4 Bft) 91,49 %
02.07.2016 02:18 15,8 C 15,0 C 13,9 C 94 % 15 lf 1010,3 hPa 0,2 l/m 0 min 2 min 0 W/m 16,7 km/h (3 Bft) 100,00 %
02.07.2016 02:20 15,8 C 15,0 C 13,9 C 94 % 15 lf 1010,2 hPa 0,4 l/m 0 min 2 min 0 W/m 10,5 km/h (2 Bft) 97,83 %
02.07.2016 02:22 15,7 C 15,0 C 13,9 C 94 % 15 lf 1010,2 hPa 0,0 l/m 0 min 2 min 0 W/m 20,9 km/h (4 Bft) 100,00 %
02.07.2016 02:24 15,7 C 15,0 C 13,9 C 94 % 15 lf 1010,2 hPa 0,2 l/m 0 min 2 min 0 W/m 10,5 km/h (2 Bft) 97,87 %
02.07.2016 02:26 15,7 C 15,0 C 13,9 C 94 % 15 lf 1010,2 hPa 0,0 l/m 0 min 2 min 0 W/m 14,6 km/h (3 Bft) 97,87 %
02.07.2016 02:28 15,7 C 15,0 C 13,9 C 94 % 15 lf 1010,2 hPa 0,0 l/m 0 min 2 min 0 W/m 18,8 km/h (3 Bft) 100,00 %
02.07.2016 02:30 15,7 C 15,0 C 13,9 C 95 % 15 lf 1010,1 hPa 0,0 l/m 0 min 2 min 0 W/m 14,6 km/h (3 Bft) 100,00 %
02.07.2016 02:32 15,7 C 15,0 C 13,9 C 95 % 15 lf 1010,1 hPa 0,2 l/m 0 min 2 min 0 W/m 12,6 km/h (3 Bft) 97,87 %
02.07.2016 02:34 15,6 C 15,0 C 13,9 C 95 % 15 lf 1010,1 hPa 0,0 l/m 0 min 0 min 0 W/m 14,6 km/h (3 Bft) 100,00 %
02.07.2016 02:36 15,6 C 15,0 C 13,9 C 95 % 15 lf 1010,2 hPa 0,0 l/m 0 min 0 min 0 W/m 16,7 km/h (3 Bft) 95,74 %
02.07.2016 02:38 15,6 C 15,0 C 13,9 C 95 % 15 lf 1010,2 hPa 0,0 l/m 0 min 0 min 0 W/m 18,8 km/h (3 Bft) 97,87 %
02.07.2016 02:40 15,6 C 15,0 C 13,9 C 95 % 15 lf 1010,3 hPa 0,0 l/m 0 min 0 min 0 W/m 25,1 km/h (4 Bft) 100,00 %
02.07.2016 02:42 15,6 C 14,4 C 13,9 C 95 % 15 lf 1010,3 hPa 0,0 l/m 0 min 0 min 0 W/m 27,2 km/h (4 Bft) 97,83 %
02.07.2016 02:44 15,5 C 14,4 C 13,9 C 95 % 15 lf 1010,3 hPa 0,0 l/m 0 min 2 min 0 W/m 23,0 km/h (4 Bft) 100,00 %
02.07.2016 02:46 15,4 C 14,4 C 13,9 C 95 % 15 lf 1010,4 hPa 0,0 l/m 0 min 2 min 0 W/m 25,1 km/h (4 Bft) 100,00 %
02.07.2016 02:48 15,4 C 14,4 C 13,9 C 95 % 15 lf 1010,4 hPa 0,0 l/m 0 min 2 min 0 W/m 20,9 km/h (4 Bft) 97,87 %
02.07.2016 02:50 15,3 C 14,4 C 13,9 C 95 % 15 lf 1010,4 hPa 0,2 l/m 0 min 2 min 0 W/m 23,0 km/h (4 Bft) 97,87 %
02.07.2016 02:52 15,3 C 14,4 C 13,9 C 95 % 15 lf 1010,4 hPa 0,0 l/m 0 min 2 min 0 W/m 20,9 km/h (4 Bft) 100,00 %
02.07.2016 02:54 15,3 C 14,4 C 13,9 C 95 % 15 lf 1010,4 hPa 0,2 l/m 0 min 2 min 0 W/m 14,6 km/h (3 Bft) 97,87 %
02.07.2016 02:56 15,3 C 14,4 C 13,9 C 95 % 15 lf 1010,4 hPa 0,2 l/m 0 min 2 min 0 W/m 14,6 km/h (3 Bft) 97,83 %
02.07.2016 02:58 15,2 C 14,4 C 13,3 C 95 % 15 lf 1010,4 hPa 0,2 l/m 0 min 2 min 0 W/m 14,6 km/h (3 Bft) 100,00 %
02.07.2016 03:00 15,2 C 14,4 C 13,9 C 95 % 15 lf 1010,4 hPa 0,2 l/m 0 min 2 min 0 W/m 10,5 km/h (2 Bft) 100,00 %
02.07.2016 03:02 15,2 C 14,4 C 13,9 C 95 % 15 lf 1010,4 hPa 0,0 l/m 0 min 2 min 0 W/m 20,9 km/h (4 Bft) 100,00 %
02.07.2016 03:04 15,2 C 14,4 C 13,9 C 95 % 15 lf 1010,5 hPa 0,2 l/m 0 min 2 min 0 W/m 23,0 km/h (4 Bft) 97,87 %
02.07.2016 03:06 15,2 C 14,4 C 13,3 C 95 % 15 lf 1010,5 hPa 0,0 l/m 0 min 2 min 0 W/m 12,6 km/h (3 Bft) 97,83 %
02.07.2016 03:08 15,2 C 14,4 C 13,3 C 95 % 15 lf 1010,4 hPa 0,0 l/m 0 min 0 min 0 W/m 18,8 km/h (3 Bft) 95,74 %
02.07.2016 03:10 15,1 C 13,9 C 13,3 C 95 % 15 lf 1010,4 hPa 0,0 l/m 0 min 0 min 0 W/m 25,1 km/h (4 Bft) 100,00 %
02.07.2016 03:12 15,0 C 13,9 C 13,3 C 95 % 15 lf 1010,4 hPa 0,0 l/m 0 min 0 min 0 W/m 20,9 km/h (4 Bft) 95,74 %
02.07.2016 03:14 14,9 C 13,9 C 13,3 C 95 % 15 lf 1010,4 hPa 0,0 l/m 0 min 0 min 0 W/m 20,9 km/h (4 Bft) 97,87 %
02.07.2016 03:16 14,9 C 13,9 C 13,3 C 95 % 15 lf 1010,5 hPa 0,0 l/m 0 min 2 min 0 W/m 23,0 km/h (4 Bft) 97,87 %
02.07.2016 03:18 14,9 C 13,9 C 13,3 C 95 % 15 lf 1010,5 hPa 0,0 l/m 0 min 2 min 0 W/m 16,7 km/h (3 Bft) 97,83 %
02.07.2016 03:20 14,8 C 13,9 C 13,3 C 95 % 15 lf 1010,6 hPa 0,0 l/m 0 min 0 min 0 W/m 20,9 km/h (4 Bft) 95,74 %
02.07.2016 03:22 14,8 C 13,9 C 13,3 C 95 % 15 lf 1010,5 hPa 0,0 l/m 0 min 0 min 0 W/m 27,2 km/h (4 Bft) 95,74 %
02.07.2016 03:24 14,7 C 13,9 C 13,3 C 95 % 15 lf 1010,5 hPa 0,0 l/m 0 min 0 min 0 W/m 18,8 km/h (3 Bft) 95,74 %
02.07.2016 03:26 14,7 C 13,9 C 13,3 C 95 % 15 lf 1010,5 hPa 0,0 l/m 0 min 0 min 0 W/m 18,8 km/h (3 Bft) 95,74 %
02.07.2016 03:28 14,7 C 13,9 C 13,3 C 95 % 15 lf 1010,5 hPa 0,0 l/m 0 min 0 min 0 W/m 18,8 km/h (3 Bft) 93,62 %
02.07.2016 03:30 14,7 C 13,9 C 12,8 C 95 % 15 lf 1010,6 hPa 0,0 l/m 0 min 2 min 0 W/m 18,8 km/h (3 Bft) 97,83 %
02.07.2016 03:32 14,6 C 13,9 C 12,8 C 96 % 15 lf 1010,6 hPa 0,0 l/m 0 min 0 min 0 W/m 20,9 km/h (4 Bft) 95,74 %
02.07.2016 03:34 14,6 C 13,9 C 12,8 C 96 % 15 lf 1010,6 hPa 0,0 l/m 0 min 0 min 0 W/m 18,8 km/h (3 Bft) 97,87 %
02.07.2016 03:36 14,6 C 13,9 C 12,8 C 96 % 15 lf 1010,6 hPa 0,0 l/m 0 min 0 min 0 W/m 25,1 km/h (4 Bft) 93,62 %
02.07.2016 03:38 14,5 C 13,9 C 12,8 C 96 % 15 lf 1010,6 hPa 0,0 l/m 0 min 0 min 0 W/m 18,8 km/h (3 Bft) 93,62 %
02.07.2016 03:40 14,4 C 13,9 C 12,8 C 95 % 15 lf 1010,7 hPa 0,0 l/m 0 min 0 min 0 W/m 29,3 km/h (5 Bft) 87,23 %
02.07.2016 03:42 14,4 C 13,3 C 12,8 C 95 % 15 lf 1010,7 hPa 0,0 l/m 0 min 0 min 0 W/m 25,1 km/h (4 Bft) 89,13 %
02.07.2016 03:44 14,2 C 13,3 C 12,8 C 95 % 15 lf 1010,8 hPa 0,0 l/m 0 min 0 min 0 W/m 35,6 km/h (5 Bft) 93,62 %
02.07.2016 03:46 14,2 C 13,3 C 12,2 C 95 % 15 lf 1010,8 hPa 0,0 l/m 0 min 0 min 0 W/m 25,1 km/h (4 Bft) 91,49 %
02.07.2016 03:48 14,2 C 13,3 C 12,2 C 95 % 15 lf 1010,7 hPa 0,0 l/m 0 min 0 min 0 W/m 25,1 km/h (4 Bft) 91,49 %
02.07.2016 03:50 14,1 C 12,8 C 12,2 C 95 % 15 lf 1010,7 hPa 0,0 l/m 0 min 0 min 0 W/m 27,2 km/h (4 Bft) 93,62 %
02.07.2016 03:52 13,9 C 12,8 C 12,2 C 95 % 15 lf 1010,7 hPa 0,0 l/m 0 min 0 min 0 W/m 29,3 km/h (5 Bft) 93,62 %
02.07.2016 03:54 13,8 C 12,8 C 12,2 C 95 % 15 lf 1010,7 hPa 0,0 l/m 0 min 2 min 0 W/m 29,3 km/h (5 Bft) 91,30 %
02.07.2016 03:56 13,8 C 12,8 C 12,2 C 95 % 15 lf 1010,7 hPa 0,0 l/m 0 min 2 min 0 W/m 23,0 km/h (4 Bft) 87,23 %
02.07.2016 03:58 13,7 C 12,8 C 12,2 C 95 % 15 lf 1010,8 hPa 0,0 l/m 0 min 0 min 0 W/m 18,8 km/h (3 Bft) 93,62 %
02.07.2016 04:00 13,7 C 12,8 C 12,2 C 95 % 15 lf 1010,8 hPa 0,0 l/m 0 min 0 min 0 W/m 18,8 km/h (3 Bft) 93,62 %
02.07.2016 04:02 13,6 C 12,8 C 12,2 C 95 % 15 lf 1010,8 hPa 0,0 l/m 0 min 0 min 0 W/m 16,7 km/h (3 Bft) 93,10 %
02.07.2016 04:04 13,6 C 12,8 C 12,2 C 95 % 15 lf 1010,8 hPa 0,0 l/m 0 min 0 min 0 W/m 14,6 km/h (3 Bft) 95,65 %
02.07.2016 04:06 13,6 C 12,8 C 12,2 C 95 % 15 lf 1010,7 hPa 0,0 l/m 0 min 0 min 0 W/m 16,7 km/h (3 Bft) 93,62 %
02.07.2016 04:08 13,6 C 12,8 C 12,2 C 95 % 15 lf 1010,7 hPa 0,0 l/m 0 min 0 min 0 W/m 14,6 km/h (3 Bft) 95,74 %
02.07.2016 04:10 13,5 C 12,8 C 12,2 C 95 % 15 lf 1010,7 hPa 0,0 l/m 0 min 0 min 0 W/m 14,6 km/h (3 Bft) 93,62 %
02.07.2016 04:12 13,5 C 12,8 C 12,2 C 95 % 15 lf 1010,8 hPa 0,0 l/m 0 min 0 min 0 W/m 16,7 km/h (3 Bft) 93,62 %
02.07.2016 04:14 13,5 C 12,8 C 12,2 C 95 % 15 lf 1010,8 hPa 0,0 l/m 0 min 0 min 0 W/m 20,9 km/h (4 Bft) 91,49 %
02.07.2016 04:16 13,5 C 12,8 C 12,2 C 95 % 15 lf 1010,8 hPa 0,0 l/m 0 min 0 min 0 W/m 23,0 km/h (4 Bft) 95,65 %
02.07.2016 04:18 13,5 C 12,8 C 12,2 C 95 % 15 lf 1010,8 hPa 0,0 l/m 0 min 0 min 0 W/m 18,8 km/h (3 Bft) 95,74 %
02.07.2016 04:20 13,5 C 12,8 C 12,2 C 95 % 15 lf 1010,9 hPa 0,0 l/m 0 min 0 min 0 W/m 23,0 km/h (4 Bft) 95,74 %
02.07.2016 04:22 13,5 C 12,8 C 12,2 C 95 % 15 lf 1010,8 hPa 0,0 l/m 0 min 0 min 0 W/m 20,9 km/h (4 Bft) 93,62 %
02.07.2016 04:24 13,5 C 12,8 C 12,2 C 95 % 15 lf 1010,9 hPa 0,0 l/m 0 min 0 min 0 W/m 16,7 km/h (3 Bft) 97,87 %
02.07.2016 04:26 13,5 C 12,8 C 12,2 C 95 % 15 lf 1010,8 hPa 0,0 l/m 0 min 0 min 0 W/m 16,7 km/h (3 Bft) 95,74 %
02.07.2016 04:28 13,5 C 12,8 C 12,2 C 95 % 15 lf 1010,9 hPa 0,0 l/m 0 min 0 min 0 W/m 16,7 km/h (3 Bft) 97,83 %
02.07.2016 04:30 13,5 C 12,8 C 12,2 C 95 % 15 lf 1010,9 hPa 0,0 l/m 0 min 0 min 0 W/m 12,6 km/h (3 Bft) 97,87 %
02.07.2016 04:32 13,5 C 12,8 C 12,2 C 95 % 15 lf 1010,8 hPa 0,0 l/m 0 min 0 min 0 W/m 20,9 km/h (4 Bft) 95,74 %
02.07.2016 04:34 13,4 C 12,8 C 12,2 C 95 % 15 lf 1010,8 hPa 0,0 l/m 0 min 0 min 0 W/m 23,0 km/h (4 Bft) 95,74 %
02.07.2016 04:36 13,4 C 12,8 C 12,2 C 95 % 15 lf 1010,9 hPa 0,0 l/m 0 min 0 min 0 W/m 14,6 km/h (3 Bft) 95,74 %
02.07.2016 04:38 13,4 C 12,8 C 12,2 C 95 % 15 lf 1010,9 hPa 0,0 l/m 0 min 0 min 0 W/m 20,9 km/h (4 Bft) 95,74 %
02.07.2016 04:40 13,4 C 12,8 C 12,2 C 95 % 15 lf 1010,9 hPa 0,0 l/m 0 min 0 min 0 W/m 16,7 km/h (3 Bft) 95,65 %
02.07.2016 04:42 13,4 C 12,8 C 12,2 C 95 % 15 lf 1010,9 hPa 0,0 l/m 0 min 0 min 0 W/m 14,6 km/h (3 Bft) 97,87 %
02.07.2016 04:44 13,4 C 12,8 C 12,2 C 95 % 15 lf 1011,0 hPa 0,0 l/m 0 min 0 min 0 W/m 20,9 km/h (4 Bft) 95,74 %
02.07.2016 04:46 13,4 C 12,8 C 12,2 C 95 % 15 lf 1011,0 hPa 0,0 l/m 0 min 0 min 0 W/m 16,7 km/h (3 Bft) 93,62 %
02.07.2016 04:48 13,4 C 12,8 C 12,2 C 95 % 15 lf 1011,0 hPa 0,0 l/m 0 min 0 min 0 W/m 16,7 km/h (3 Bft) 95,74 %
02.07.2016 04:50 13,4 C 12,8 C 12,2 C 95 % 15 lf 1011,0 hPa 0,0 l/m 0 min 0 min 0 W/m 16,7 km/h (3 Bft) 95,74 %
02.07.2016 04:52 13,4 C 12,8 C 12,2 C 95 % 15 lf 1011,0 hPa 0,0 l/m 0 min 0 min 0 W/m 16,7 km/h (3 Bft) 97,83 %
02.07.2016 04:54 13,3 C 12,8 C 12,2 C 95 % 15 lf 1011,0 hPa 0,0 l/m 0 min 0 min 0 W/m 18,8 km/h (3 Bft) 97,87 %
02.07.2016 04:56 13,3 C 12,8 C 12,2 C 95 % 15 lf 1011,0 hPa 0,0 l/m 0 min 0 min 0 W/m 18,8 km/h (3 Bft) 97,87 %
02.07.2016 04:58 13,3 C 12,8 C 11,7 C 95 % 15 lf 1011,0 hPa 0,0 l/m 0 min 0 min 0 W/m 18,8 km/h (3 Bft) 97,87 %
02.07.2016 05:00 13,3 C 12,8 C 11,7 C 95 % 15 lf 1011,2 hPa 0,0 l/m 0 min 0 min 0 W/m 25,1 km/h (4 Bft) 95,74 %
02.07.2016 05:02 13,3 C 12,8 C 11,7 C 95 % 15 lf 1011,1 hPa 0,0 l/m 0 min 0 min 0 W/m 18,8 km/h (3 Bft) 97,87 %
02.07.2016 05:04 13,3 C 12,8 C 11,7 C 95 % 15 lf 1011,2 hPa 0,0 l/m 0 min 0 min 0 W/m 25,1 km/h (4 Bft) 93,48 %
02.07.2016 05:06 13,2 C 12,8 C 11,7 C 95 % 15 lf 1011,2 hPa 0,0 l/m 0 min 0 min 0 W/m 14,6 km/h (3 Bft) 93,62 %
02.07.2016 05:08 13,2 C 12,8 C 11,7 C 95 % 15 lf 1011,2 hPa 0,0 l/m 0 min 0 min 0 W/m 14,6 km/h (3 Bft) 97,87 %
02.07.2016 05:10 13,2 C 12,8 C 11,7 C 95 % 15 lf 1011,1 hPa 0,0 l/m 0 min 0 min 0 W/m 14,6 km/h (3 Bft) 95,74 %
02.07.2016 05:12 13,2 C 12,8 C 11,7 C 95 % 15 lf 1011,2 hPa 0,0 l/m 0 min 0 min 0 W/m 16,7 km/h (3 Bft) 97,87 %
02.07.2016 05:14 13,2 C 12,8 C 11,7 C 95 % 15 lf 1011,1 hPa 0,0 l/m 0 min 0 min 0 W/m 14,6 km/h (3 Bft) 97,87 %
02.07.2016 05:16 13,2 C 12,8 C 11,7 C 95 % 15 lf 1011,2 hPa 0,0 l/m 0 min 0 min 0 W/m 12,6 km/h (3 Bft) 100,00 %
02.07.2016 05:18 13,2 C 12,8 C 11,7 C 95 % 15 lf 1011,2 hPa 0,0 l/m 0 min 0 min 0 W/m 16,7 km/h (3 Bft) 97,87 %
02.07.2016 05:20 13,2 C 12,8 C 11,7 C 95 % 15 lf 1011,2 hPa 0,0 l/m 0 min 0 min 0 W/m 14,6 km/h (3 Bft) 97,87 %
02.07.2016 05:22 13,2 C 12,8 C 11,7 C 95 % 15 lf 1011,3 hPa 0,0 l/m 0 min 0 min 0 W/m 16,7 km/h (3 Bft) 100,00 %
02.07.2016 05:24 13,2 C 12,8 C 11,7 C 95 % 15 lf 1011,2 hPa 0,0 l/m 0 min 0 min 0 W/m 20,9 km/h (4 Bft) 97,87 %
02.07.2016 05:26 13,2 C 12,8 C 11,7 C 95 % 15 lf 1011,3 hPa 0,0 l/m 0 min 0 min 4 W/m 20,9 km/h (4 Bft) 95,65 %
02.07.2016 05:28 13,2 C 12,8 C 11,7 C 95 % 14 lf 1011,3 hPa 0,0 l/m 0 min 0 min 5 W/m 16,7 km/h (3 Bft) 95,74 %
02.07.2016 05:30 13,2 C 12,8 C 11,7 C 95 % 14 lf 1011,2 hPa 0,0 l/m 0 min 0 min 5 W/m 16,7 km/h (3 Bft) 100,00 %
02.07.2016 05:32 13,2 C 12,8 C 11,7 C 95 % 15 lf 1011,3 hPa 0,0 l/m 0 min 0 min 6 W/m 14,6 km/h (3 Bft) 97,87 %
02.07.2016 05:34 13,1 C 12,8 C 11,7 C 95 % 14 lf 1011,2 hPa 0,0 l/m 0 min 0 min 7 W/m 20,9 km/h (4 Bft) 95,74 %
02.07.2016 05:36 13,1 C 12,8 C 11,7 C 95 % 14 lf 1011,1 hPa 0,0 l/m 0 min 0 min 8 W/m 12,6 km/h (3 Bft) 97,87 %
02.07.2016 05:38 13,1 C 12,8 C 11,7 C 95 % 14 lf 1011,2 hPa 0,0 l/m 0 min 0 min 9 W/m 23,0 km/h (4 Bft) 97,83 %
02.07.2016 05:40 13,1 C 12,8 C 11,7 C 95 % 14 lf 1011,4 hPa 0,0 l/m 0 min 0 min 9 W/m 14,6 km/h (3 Bft) 97,87 %
02.07.2016 05:42 13,1 C 12,8 C 11,7 C 95 % 14 lf 1011,4 hPa 0,0 l/m 0 min 0 min 9 W/m 14,6 km/h (3 Bft) 97,87 %
02.07.2016 05:44 13,1 C 12,8 C 11,7 C 95 % 14 lf 1011,4 hPa 0,0 l/m 0 min 0 min 10 W/m 18,8 km/h (3 Bft) 95,74 %
02.07.2016 05:46 13,1 C 12,8 C 11,7 C 95 % 14 lf 1011,4 hPa 0,0 l/m 0 min 0 min 11 W/m 20,9 km/h (4 Bft) 97,87 %
02.07.2016 05:48 13,1 C 12,8 C 11,7 C 95 % 13 lf 1011,4 hPa 0,0 l/m 0 min 0 min 11 W/m 18,8 km/h (3 Bft) 97,87 %
02.07.2016 05:50 13,1 C 12,8 C 11,7 C 95 % 13 lf 1011,4 hPa 0,0 l/m 0 min 0 min 11 W/m 20,9 km/h (4 Bft) 95,65 %
02.07.2016 05:52 13,1 C 12,8 C 11,7 C 95 % 13 lf 1011,5 hPa 0,0 l/m 0 min 0 min 12 W/m 16,7 km/h (3 Bft) 97,87 %
02.07.2016 05:54 13,1 C 12,8 C 11,7 C 95 % 13 lf 1011,6 hPa 0,0 l/m 0 min 0 min 12 W/m 16,7 km/h (3 Bft) 97,87 %
02.07.2016 05:56 13,1 C 12,8 C 11,7 C 95 % 13 lf 1011,5 hPa 0,0 l/m 0 min 0 min 13 W/m 16,7 km/h (3 Bft) 97,87 %
02.07.2016 05:58 13,1 C 12,8 C 11,7 C 95 % 13 lf 1011,5 hPa 0,0 l/m 0 min 0 min 15 W/m 16,7 km/h (3 Bft) 97,87 %
02.07.2016 06:00 13,1 C 12,8 C 11,7 C 95 % 12 lf 1011,4 hPa 0,0 l/m 0 min 0 min 16 W/m 23,0 km/h (4 Bft) 91,49 %
02.07.2016 06:02 13,1 C 12,8 C 11,7 C 95 % 12 lf 1011,4 hPa 0,0 l/m 0 min 0 min 16 W/m 16,7 km/h (3 Bft) 95,65 %
02.07.2016 06:04 13,1 C 12,8 C 11,7 C 95 % 12 lf 1011,4 hPa 0,0 l/m 0 min 0 min 16 W/m 23,0 km/h (4 Bft) 97,87 %
02.07.2016 06:06 13,1 C 12,8 C 11,7 C 95 % 11 lf 1011,4 hPa 0,0 l/m 0 min 0 min 18 W/m 16,7 km/h (3 Bft) 97,87 %
02.07.2016 06:08 13,1 C 12,8 C 11,7 C 94 % 10 lf 1011,4 hPa 0,0 l/m 0 min 0 min 21 W/m 18,8 km/h (3 Bft) 100,00 %
02.07.2016 06:10 13,1 C 12,8 C 11,7 C 94 % 9 lf 1011,5 hPa 0,0 l/m 0 min 0 min 20 W/m 16,7 km/h (3 Bft) 97,87 %
02.07.2016 06:12 13,1 C 12,8 C 11,7 C 94 % 9 lf 1011,4 hPa 0,0 l/m 0 min 0 min 20 W/m 20,9 km/h (4 Bft) 95,65 %
02.07.2016 06:14 13,1 C 12,8 C 11,7 C 94 % 8 lf 1011,4 hPa 0,0 l/m 0 min 0 min 23 W/m 14,6 km/h (3 Bft) 95,74 %
02.07.2016 06:16 13,1 C 12,8 C 11,7 C 94 % 7 lf 1011,3 hPa 0,0 l/m 0 min 0 min 26 W/m 12,6 km/h (3 Bft) 95,74 %
02.07.2016 06:18 13,1 C 12,8 C 11,7 C 94 % 6 lf 1011,3 hPa 0,0 l/m 0 min 0 min 26 W/m 16,7 km/h (3 Bft) 95,74 %
02.07.2016 06:20 13,1 C 12,8 C 11,7 C 94 % 6 lf 1011,4 hPa 0,0 l/m 0 min 0 min 25 W/m 16,7 km/h (3 Bft) 93,62 %
02.07.2016 06:22 13,1 C 12,8 C 11,7 C 94 % 4 lf 1011,5 hPa 0,0 l/m 0 min 0 min 26 W/m 20,9 km/h (4 Bft) 95,74 %
02.07.2016 06:24 13,1 C 12,8 C 11,7 C 94 % 4 lf 1011,4 hPa 0,0 l/m 0 min 0 min 29 W/m 20,9 km/h (4 Bft) 95,74 %
02.07.2016 06:26 13,1 C 12,8 C 11,7 C 94 % 3 lf 1011,4 hPa 0,0 l/m 0 min 0 min 32 W/m 18,8 km/h (3 Bft) 95,65 %
02.07.2016 06:28 13,1 C 12,8 C 11,7 C 94 % 3 lf 1011,4 hPa 0,0 l/m 0 min 0 min 33 W/m 12,6 km/h (3 Bft) 93,62 %
02.07.2016 06:30 13,1 C 12,8 C 11,7 C 94 % 2 lf 1011,4 hPa 0,0 l/m 0 min 0 min 33 W/m 14,6 km/h (3 Bft) 95,74 %
02.07.2016 06:32 13,1 C 12,8 C 12,2 C 94 % 2 lf 1011,5 hPa 0,0 l/m 0 min 0 min 36 W/m 14,6 km/h (3 Bft) 93,62 %
02.07.2016 06:34 13,1 C 12,8 C 11,7 C 94 % 1 lf 1011,5 hPa 0,0 l/m 0 min 0 min 41 W/m 14,6 km/h (3 Bft) 93,62 %
02.07.2016 06:36 13,1 C 12,8 C 12,2 C 94 % 1 lf 1011,5 hPa 0,0 l/m 0 min 0 min 44 W/m 12,6 km/h (3 Bft) 95,65 %
02.07.2016 06:38 13,1 C 12,8 C 12,2 C 94 % 1 lf 1011,6 hPa 0,0 l/m 0 min 0 min 43 W/m 16,7 km/h (3 Bft) 95,74 %
02.07.2016 06:40 13,1 C 12,8 C 12,2 C 94 % 1 lf 1011,7 hPa 0,0 l/m 0 min 0 min 42 W/m 20,9 km/h (4 Bft) 93,62 %
02.07.2016 06:42 13,2 C 12,8 C 12,2 C 94 % 0 lf 1011,6 hPa 0,0 l/m 0 min 0 min 44 W/m 16,7 km/h (3 Bft) 93,62 %
02.07.2016 06:44 13,2 C 12,8 C 12,2 C 94 % 0 lf 1011,6 hPa 0,0 l/m 0 min 0 min 46 W/m 12,6 km/h (3 Bft) 95,74 %
02.07.2016 06:46 13,2 C 12,8 C 12,2 C 94 % 0 lf 1011,7 hPa 0,0 l/m 0 min 0 min 48 W/m 16,7 km/h (3 Bft) 93,62 %
02.07.2016 06:48 13,2 C 12,8 C 12,2 C 94 % 0 lf 1011,7 hPa 0,0 l/m 0 min 0 min 53 W/m 12,6 km/h (3 Bft) 95,65 %
02.07.2016 06:50 13,2 C 12,8 C 12,2 C 94 % 0 lf 1011,7 hPa 0,0 l/m 0 min 0 min 61 W/m 14,6 km/h (3 Bft) 91,49 %
02.07.2016 06:52 13,2 C 13,3 C 12,2 C 94 % 0 lf 1011,6 hPa 0,0 l/m 0 min 0 min 63 W/m 18,8 km/h (3 Bft) 95,74 %
02.07.2016 06:54 13,2 C 13,3 C 12,2 C 94 % 0 lf 1011,7 hPa 0,0 l/m 0 min 0 min 62 W/m 14,6 km/h (3 Bft) 95,74 %
02.07.2016 06:56 13,2 C 13,3 C 12,2 C 94 % 0 lf 1011,8 hPa 0,0 l/m 0 min 0 min 55 W/m 14,6 km/h (3 Bft) 93,62 %
02.07.2016 06:58 13,2 C 13,3 C 12,2 C 94 % 0 lf 1011,8 hPa 0,0 l/m 0 min 0 min 53 W/m 12,6 km/h (3 Bft) 93,62 %
02.07.2016 07:00 13,2 C 13,3 C 12,2 C 94 % 0 lf 1011,8 hPa 0,0 l/m 0 min 0 min 54 W/m 12,6 km/h (3 Bft) 93,48 %
02.07.2016 07:02 13,2 C 13,3 C 12,2 C 94 % 0 lf 1011,9 hPa 0,0 l/m 0 min 0 min 62 W/m 25,1 km/h (4 Bft) 95,74 %
02.07.2016 07:04 13,3 C 13,3 C 12,2 C 95 % 0 lf 1011,8 hPa 0,0 l/m 0 min 0 min 78 W/m 23,0 km/h (4 Bft) 100,00 %
02.07.2016 07:06 13,3 C 13,3 C 12,2 C 95 % 0 lf 1011,8 hPa 0,0 l/m 0 min 0 min 86 W/m 16,7 km/h (3 Bft) 97,87 %
02.07.2016 07:08 13,3 C 13,3 C 12,2 C 95 % 0 lf 1011,8 hPa 0,0 l/m 0 min 0 min 85 W/m 16,7 km/h (3 Bft) 97,87 %
02.07.2016 07:10 13,3 C 13,3 C 12,2 C 95 % 0 lf 1011,8 hPa 0,0 l/m 0 min 0 min 82 W/m 18,8 km/h (3 Bft) 97,87 %
02.07.2016 07:12 13,3 C 13,3 C 12,2 C 95 % 0 lf 1011,8 hPa 0,0 l/m 0 min 0 min 82 W/m 14,6 km/h (3 Bft) 97,83 %
02.07.2016 07:14 13,3 C 13,3 C 12,2 C 95 % 0 lf 1011,8 hPa 0,0 l/m 0 min 0 min 81 W/m 18,8 km/h (3 Bft) 100,00 %
02.07.2016 07:16 13,3 C 13,3 C 12,2 C 95 % 0 lf 1011,8 hPa 0,0 l/m 0 min 0 min 75 W/m 20,9 km/h (4 Bft) 100,00 %
02.07.2016 07:18 13,3 C 13,3 C 12,2 C 95 % 0 lf 1011,9 hPa 0,0 l/m 0 min 0 min 70 W/m 23,0 km/h (4 Bft) 93,62 %
02.07.2016 07:20 13,3 C 13,3 C 12,2 C 94 % 0 lf 1011,9 hPa 0,0 l/m 0 min 0 min 69 W/m 16,7 km/h (3 Bft) 100,00 %
02.07.2016 07:22 13,3 C 13,3 C 12,2 C 94 % 0 lf 1011,9 hPa 0,0 l/m 0 min 0 min 67 W/m 16,7 km/h (3 Bft) 97,87 %
02.07.2016 07:24 13,3 C 13,3 C 12,2 C 94 % 0 lf 1011,9 hPa 0,0 l/m 0 min 0 min 66 W/m 18,8 km/h (3 Bft) 95,65 %
02.07.2016 07:26 13,3 C 13,3 C 12,2 C 94 % 0 lf 1011,9 hPa 0,0 l/m 0 min 0 min 69 W/m 18,8 km/h (3 Bft) 97,87 %
02.07.2016 07:28 13,3 C 13,3 C 12,2 C 94 % 0 lf 1011,9 hPa 0,0 l/m 0 min 0 min 69 W/m 23,0 km/h (4 Bft) 95,74 %
02.07.2016 07:30 13,3 C 13,3 C 12,2 C 94 % 0 lf 1012,0 hPa 0,0 l/m 0 min 0 min 69 W/m 16,7 km/h (3 Bft) 97,87 %
02.07.2016 07:32 13,3 C 13,3 C 12,2 C 94 % 0 lf 1011,9 hPa 0,0 l/m 0 min 0 min 69 W/m 18,8 km/h (3 Bft) 97,87 %
02.07.2016 07:34 13,3 C 13,3 C 12,2 C 94 % 0 lf 1012,0 hPa 0,0 l/m 0 min 0 min 70 W/m 20,9 km/h (4 Bft) 97,87 %
02.07.2016 07:36 13,3 C 13,3 C 12,2 C 94 % 0 lf 1012,0 hPa 0,0 l/m 0 min 0 min 71 W/m 20,9 km/h (4 Bft) 91,30 %
02.07.2016 07:38 13,3 C 13,3 C 12,2 C 94 % 0 lf 1012,0 hPa 0,0 l/m 0 min 0 min 74 W/m 20,9 km/h (4 Bft) 97,87 %
02.07.2016 07:40 13,3 C 13,3 C 12,2 C 94 % 0 lf 1012,0 hPa 0,0 l/m 0 min 0 min 76 W/m 20,9 km/h (4 Bft) 97,87 %
02.07.2016 07:42 13,4 C 13,3 C 12,2 C 94 % 0 lf 1012,0 hPa 0,0 l/m 0 min 0 min 80 W/m 23,0 km/h (4 Bft) 95,74 %
02.07.2016 07:44 13,3 C 13,3 C 12,2 C 94 % 0 lf 1011,9 hPa 0,0 l/m 0 min 0 min 84 W/m 20,9 km/h (4 Bft) 97,87 %
02.07.2016 07:46 13,3 C 13,3 C 12,2 C 94 % 0 lf 1012,0 hPa 0,0 l/m 0 min 0 min 87 W/m 18,8 km/h (3 Bft) 97,83 %
02.07.2016 07:48 13,3 C 13,3 C 12,8 C 94 % 0 lf 1011,9 hPa 0,0 l/m 0 min 0 min 92 W/m 14,6 km/h (3 Bft) 100,00 %
02.07.2016 07:50 13,4 C 13,3 C 12,8 C 94 % 0 lf 1011,9 hPa 0,0 l/m 0 min 0 min 96 W/m 18,8 km/h (3 Bft) 95,74 %
02.07.2016 07:52 13,4 C 13,3 C 12,8 C 94 % 0 lf 1012,0 hPa 0,0 l/m 0 min 0 min 101 W/m 16,7 km/h (3 Bft) 95,74 %
02.07.2016 07:54 13,4 C 13,3 C 12,8 C 94 % 0 lf 1012,1 hPa 0,0 l/m 0 min 0 min 113 W/m 25,1 km/h (4 Bft) 97,87 %
02.07.2016 07:56 13,4 C 13,3 C 12,8 C 94 % 0 lf 1012,1 hPa 0,0 l/m 0 min 0 min 128 W/m 20,9 km/h (4 Bft) 100,00 %
02.07.2016 07:58 13,4 C 13,3 C 12,8 C 94 % 0 lf 1012,1 hPa 0,0 l/m 0 min 0 min 140 W/m 23,0 km/h (4 Bft) 97,83 %
02.07.2016 08:00 13,4 C 13,9 C 12,8 C 94 % 0 lf 1012,1 hPa 0,0 l/m 0 min 0 min 146 W/m 18,8 km/h (3 Bft) 100,00 %
02.07.2016 08:02 13,5 C 13,9 C 13,3 C 94 % 0 lf 1012,2 hPa 0,0 l/m 0 min 0 min 144 W/m 18,8 km/h (3 Bft) 97,87 %
02.07.2016 08:04 13,5 C 13,3 C 12,8 C 94 % 0 lf 1012,2 hPa 0,0 l/m 0 min 0 min 136 W/m 29,3 km/h (5 Bft) 97,87 %
02.07.2016 08:06 13,5 C 13,3 C 12,8 C 93 % 0 lf 1012,2 hPa 0,0 l/m 0 min 0 min 131 W/m 29,3 km/h (5 Bft) 100,00 %
02.07.2016 08:08 13,6 C 13,3 C 12,8 C 94 % 0 lf 1012,2 hPa 0,0 l/m 0 min 0 min 136 W/m 23,0 km/h (4 Bft) 91,49 %
02.07.2016 08:10 13,6 C 13,9 C 12,8 C 94 % 0 lf 1012,2 hPa 0,0 l/m 0 min 0 min 146 W/m 18,8 km/h (3 Bft) 97,83 %
02.07.2016 08:12 13,6 C 13,9 C 13,3 C 94 % 0 lf 1012,2 hPa 0,0 l/m 0 min 0 min 151 W/m 20,9 km/h (4 Bft) 97,87 %
02.07.2016 08:14 13,6 C 13,9 C 13,3 C 94 % 0 lf 1012,1 hPa 0,0 l/m 0 min 0 min 150 W/m 18,8 km/h (3 Bft) 97,87 %
02.07.2016 08:16 13,6 C 13,9 C 13,3 C 93 % 0 lf 1012,1 hPa 0,0 l/m 0 min 0 min 146 W/m 16,7 km/h (3 Bft) 97,87 %
02.07.2016 08:18 13,6 C 13,9 C 13,3 C 93 % 0 lf 1012,1 hPa 0,0 l/m 0 min 0 min 137 W/m 14,6 km/h (3 Bft) 95,74 %
02.07.2016 08:20 13,7 C 13,9 C 13,3 C 93 % 0 lf 1012,1 hPa 0,0 l/m 0 min 0 min 126 W/m 23,0 km/h (4 Bft) 95,74 %
02.07.2016 08:22 13,7 C 13,9 C 13,3 C 93 % 0 lf 1012,0 hPa 0,0 l/m 0 min 0 min 126 W/m 23,0 km/h (4 Bft) 95,65 %
02.07.2016 08:24 13,7 C 13,9 C 13,3 C 93 % 0 lf 1012,0 hPa 0,0 l/m 0 min 0 min 130 W/m 18,8 km/h (3 Bft) 95,74 %
02.07.2016 08:26 13,7 C 13,9 C 13,3 C 93 % 0 lf 1012,1 hPa 0,0 l/m 0 min 0 min 147 W/m 18,8 km/h (3 Bft) 97,87 %
02.07.2016 08:28 13,7 C 14,4 C 13,3 C 93 % 0 lf 1012,2 hPa 0,0 l/m 0 min 0 min 159 W/m 20,9 km/h (4 Bft) 95,74 %
02.07.2016 08:30 13,7 C 14,4 C 13,3 C 93 % 0 lf 1012,1 hPa 0,0 l/m 0 min 0 min 156 W/m 18,8 km/h (3 Bft) 97,87 %
02.07.2016 08:32 13,8 C 14,4 C 13,3 C 93 % 0 lf 1012,1 hPa 0,0 l/m 0 min 0 min 145 W/m 33,5 km/h (5 Bft) 91,49 %
02.07.2016 08:34 13,7 C 14,4 C 13,3 C 93 % 0 lf 1012,1 hPa 0,0 l/m 0 min 0 min 137 W/m 25,1 km/h (4 Bft) 95,65 %
02.07.2016 08:36 13,8 C 14,4 C 13,3 C 93 % 0 lf 1012,3 hPa 0,0 l/m 0 min 0 min 138 W/m 18,8 km/h (3 Bft) 97,87 %
02.07.2016 08:38 13,8 C 15,0 C 13,3 C 93 % 0 lf 1012,4 hPa 0,0 l/m 0 min 0 min 146 W/m 16,7 km/h (3 Bft) 97,87 %
02.07.2016 08:40 13,8 C 15,0 C 13,3 C 93 % 0 lf 1012,4 hPa 0,0 l/m 0 min 0 min 161 W/m 27,2 km/h (4 Bft) 95,74 %
02.07.2016 08:42 13,8 C 15,0 C 13,3 C 93 % 0 lf 1012,4 hPa 0,0 l/m 0 min 0 min 172 W/m 16,7 km/h (3 Bft) 95,74 %
02.07.2016 08:44 13,8 C 15,0 C 13,3 C 93 % 0 lf 1012,4 hPa 0,0 l/m 0 min 0 min 164 W/m 14,6 km/h (3 Bft) 97,87 %
02.07.2016 08:46 13,9 C 15,0 C 13,3 C 93 % 0 lf 1012,4 hPa 0,0 l/m 0 min 0 min 156 W/m 12,6 km/h (3 Bft) 97,83 %
02.07.2016 08:48 13,9 C 15,0 C 13,3 C 93 % 0 lf 1012,5 hPa 0,0 l/m 0 min 0 min 155 W/m 23,0 km/h (4 Bft) 93,62 %
02.07.2016 08:50 13,9 C 15,0 C 13,3 C 92 % 0 lf 1012,4 hPa 0,0 l/m 0 min 0 min 150 W/m 20,9 km/h (4 Bft) 97,87 %
02.07.2016 08:52 13,9 C 15,0 C 13,3 C 92 % 0 lf 1012,5 hPa 0,0 l/m 0 min 0 min 149 W/m 20,9 km/h (4 Bft) 95,74 %
02.07.2016 08:54 13,9 C 15,0 C 13,3 C 92 % 0 lf 1012,6 hPa 0,0 l/m 0 min 0 min 144 W/m 18,8 km/h (3 Bft) 97,87 %
02.07.2016 08:56 13,9 C 14,4 C 13,3 C 92 % 0 lf 1012,6 hPa 0,0 l/m 0 min 0 min 144 W/m 20,9 km/h (4 Bft) 97,87 %
02.07.2016 08:58 13,9 C 15,0 C 13,3 C 92 % 0 lf 1012,7 hPa 0,0 l/m 0 min 0 min 155 W/m 16,7 km/h (3 Bft) 91,30 %
02.07.2016 09:00 13,9 C 15,0 C 13,3 C 92 % 0 lf 1012,8 hPa 0,0 l/m 0 min 0 min 168 W/m 25,1 km/h (4 Bft) 97,87 %
02.07.2016 09:02 13,9 C 15,0 C 13,3 C 92 % 0 lf 1012,7 hPa 0,0 l/m 0 min 0 min 165 W/m 23,0 km/h (4 Bft) 97,87 %
02.07.2016 09:04 14,0 C 15,0 C 13,9 C 92 % 0 lf 1012,8 hPa 0,0 l/m 0 min 0 min 165 W/m 29,3 km/h (5 Bft) 95,74 %
02.07.2016 09:06 14,0 C 15,0 C 13,3 C 92 % 0 lf 1012,7 hPa 0,0 l/m 0 min 0 min 154 W/m 20,9 km/h (4 Bft) 95,74 %
02.07.2016 09:08 14,0 C 15,0 C 13,3 C 92 % 0 lf 1012,8 hPa 0,0 l/m 0 min 0 min 152 W/m 25,1 km/h (4 Bft) 93,48 %
02.07.2016 09:10 14,1 C 15,0 C 13,3 C 92 % 0 lf 1012,7 hPa 0,0 l/m 0 min 0 min 152 W/m 27,2 km/h (4 Bft) 89,36 %
02.07.2016 09:12 14,1 C 15,0 C 13,3 C 92 % 0 lf 1012,8 hPa 0,0 l/m 0 min 0 min 161 W/m 18,8 km/h (3 Bft) 91,49 %
02.07.2016 09:14 14,1 C 15,0 C 13,9 C 92 % 0 lf 1012,8 hPa 0,0 l/m 0 min 0 min 175 W/m 18,8 km/h (3 Bft) 91,49 %
02.07.2016 09:16 14,1 C 15,0 C 13,9 C 91 % 0 lf 1012,7 hPa 0,0 l/m 0 min 0 min 176 W/m 23,0 km/h (4 Bft) 91,49 %
02.07.2016 09:18 14,1 C 15,0 C 13,9 C 91 % 0 lf 1012,7 hPa 0,0 l/m 0 min 0 min 179 W/m 25,1 km/h (4 Bft) 93,62 %
02.07.2016 09:20 14,1 C 15,0 C 13,9 C 91 % 0 lf 1012,8 hPa 0,0 l/m 0 min 0 min 181 W/m 20,9 km/h (4 Bft) 91,30 %
02.07.2016 09:22 14,2 C 15,6 C 13,9 C 91 % 0 lf 1012,8 hPa 0,0 l/m 0 min 0 min 186 W/m 18,8 km/h (3 Bft) 93,62 %
02.07.2016 09:24 14,2 C 15,6 C 13,9 C 91 % 0 lf 1012,7 hPa 0,0 l/m 0 min 0 min 192 W/m 20,9 km/h (4 Bft) 93,62 %
02.07.2016 09:26 14,2 C 15,6 C 14,4 C 91 % 0 lf 1012,8 hPa 0,0 l/m 0 min 0 min 192 W/m 16,7 km/h (3 Bft) 87,23 %
02.07.2016 09:28 14,2 C 16,1 C 14,4 C 91 % 0 lf 1012,8 hPa 0,0 l/m 0 min 0 min 199 W/m 16,7 km/h (3 Bft) 93,62 %
02.07.2016 09:30 14,2 C 16,1 C 14,4 C 91 % 0 lf 1012,8 hPa 0,0 l/m 0 min 0 min 220 W/m 23,0 km/h (4 Bft) 93,62 %
02.07.2016 09:32 14,2 C 16,1 C 14,4 C 91 % 0 lf 1012,8 hPa 0,0 l/m 0 min 0 min 225 W/m 23,0 km/h (4 Bft) 93,48 %
02.07.2016 09:34 14,2 C 16,1 C 14,4 C 90 % 0 lf 1012,9 hPa 0,0 l/m 0 min 0 min 212 W/m 16,7 km/h (3 Bft) 87,23 %
02.07.2016 09:36 14,2 C 16,1 C 14,4 C 90 % 0 lf 1012,9 hPa 0,0 l/m 0 min 0 min 218 W/m 20,9 km/h (4 Bft) 95,74 %
02.07.2016 09:38 14,3 C 16,7 C 14,4 C 90 % 0 lf 1013,0 hPa 0,0 l/m 0 min 0 min 245 W/m 29,3 km/h (5 Bft) 93,62 %
02.07.2016 09:40 14,3 C 17,2 C 15,0 C 90 % 0 lf 1012,9 hPa 0,0 l/m 0 min 0 min 273 W/m 20,9 km/h (4 Bft) 87,23 %
02.07.2016 09:42 14,4 C 18,9 C 15,6 C 90 % 0 lf 1012,9 hPa 0,0 l/m 2 min 0 min 470 W/m 20,9 km/h (4 Bft) 93,62 %
02.07.2016 09:44 14,5 C 19,4 C 16,1 C 90 % 0 lf 1012,8 hPa 0,0 l/m 2 min 0 min 560 W/m 20,9 km/h (4 Bft) 89,13 %
02.07.2016 09:46 14,7 C 20,0 C 16,7 C 91 % 0 lf 1012,9 hPa 0,0 l/m 2 min 0 min 569 W/m 18,8 km/h (3 Bft) 91,49 %
02.07.2016 09:48 14,8 C 20,6 C 17,2 C 91 % 0 lf 1013,0 hPa 0,0 l/m 2 min 0 min 507 W/m 20,9 km/h (4 Bft) 97,87 %
02.07.2016 09:50 14,9 C 21,1 C 17,8 C 90 % 0 lf 1013,0 hPa 0,0 l/m 2 min 0 min 485 W/m 18,8 km/h (3 Bft) 100,00 %
02.07.2016 09:52 15,0 C 20,0 C 17,8 C 90 % 0 lf 1012,9 hPa 0,0 l/m 2 min 0 min 537 W/m 16,7 km/h (3 Bft) 97,87 %
02.07.2016 09:54 15,1 C 19,4 C 17,2 C 90 % 0 lf 1012,9 hPa 0,0 l/m 2 min 0 min 388 W/m 20,9 km/h (4 Bft) 95,65 %
02.07.2016 09:56 15,2 C 19,4 C 17,2 C 89 % 0 lf 1013,0 hPa 0,0 l/m 2 min 0 min 361 W/m 20,9 km/h (4 Bft) 95,74 %
02.07.2016 09:58 15,2 C 19,4 C 17,8 C 89 % 0 lf 1012,8 hPa 0,0 l/m 2 min 0 min 374 W/m 14,6 km/h (3 Bft) 97,87 %
02.07.2016 10:00 15,3 C 18,3 C 17,2 C 89 % 0 lf 1012,9 hPa 0,0 l/m 2 min 0 min 344 W/m 20,9 km/h (4 Bft) 100,00 %
02.07.2016 10:02 15,4 C 18,3 C 17,2 C 87 % 0 lf 1012,9 hPa 0,0 l/m 2 min 0 min 352 W/m 20,9 km/h (4 Bft) 97,87 %
02.07.2016 10:04 15,4 C 18,3 C 16,7 C 87 % 0 lf 1012,9 hPa 0,0 l/m 0 min 0 min 296 W/m 25,1 km/h (4 Bft) 100,00 %
02.07.2016 10:06 15,4 C 17,8 C 16,7 C 86 % 0 lf 1012,9 hPa 0,0 l/m 0 min 0 min 282 W/m 25,1 km/h (4 Bft) 100,00 %
02.07.2016 10:08 15,4 C 17,2 C 16,1 C 86 % 0 lf 1012,9 hPa 0,0 l/m 0 min 0 min 256 W/m 25,1 km/h (4 Bft) 100,00 %
02.07.2016 10:10 15,4 C 17,2 C 16,1 C 85 % 0 lf 1013,0 hPa 0,0 l/m 0 min 0 min 272 W/m 33,5 km/h (5 Bft) 97,87 %
02.07.2016 10:12 15,4 C 16,7 C 16,1 C 85 % 0 lf 1013,0 hPa 0,0 l/m 0 min 0 min 294 W/m 25,1 km/h (4 Bft) 100,00 %
02.07.2016 10:14 15,4 C 17,2 C 16,1 C 85 % 0 lf 1013,1 hPa 0,0 l/m 0 min 0 min 278 W/m 25,1 km/h (4 Bft) 100,00 %
02.07.2016 10:16 15,4 C 17,8 C 16,1 C 85 % 0 lf 1013,0 hPa 0,0 l/m 0 min 0 min 306 W/m 18,8 km/h (3 Bft) 100,00 %
02.07.2016 10:18 15,4 C 17,8 C 16,1 C 84 % 0 lf 1013,1 hPa 0,0 l/m 0 min 0 min 298 W/m 29,3 km/h (5 Bft) 97,83 %
02.07.2016 10:20 15,4 C 17,8 C 16,1 C 84 % 0 lf 1013,1 hPa 0,0 l/m 0 min 0 min 276 W/m 14,6 km/h (3 Bft) 100,00 %
02.07.2016 10:22 15,4 C 18,9 C 16,7 C 84 % 0 lf 1013,1 hPa 0,0 l/m 0 min 0 min 294 W/m 10,5 km/h (2 Bft) 97,87 %
02.07.2016 10:24 15,5 C 18,9 C 16,7 C 85 % 0 lf 1013,1 hPa 0,0 l/m 0 min 0 min 322 W/m 12,6 km/h (3 Bft) 100,00 %
02.07.2016 10:26 15,6 C 18,9 C 17,2 C 85 % 0 lf 1013,1 hPa 0,0 l/m 2 min 0 min 347 W/m 18,8 km/h (3 Bft) 100,00 %
02.07.2016 10:28 15,6 C 19,4 C 17,8 C 85 % 0 lf 1013,2 hPa 0,0 l/m 2 min 0 min 428 W/m 27,2 km/h (4 Bft) 100,00 %
02.07.2016 10:30 15,6 C 20,0 C 18,3 C 85 % 0 lf 1013,2 hPa 0,0 l/m 2 min 0 min 464 W/m 18,8 km/h (3 Bft) 95,65 %
02.07.2016 10:32 15,7 C 21,7 C 20,0 C 85 % 0 lf 1013,2 hPa 0,0 l/m 2 min 0 min 527 W/m 27,2 km/h (4 Bft) 97,87 %
02.07.2016 10:34 15,8 C 24,4 C 20,6 C 84 % 0 lf 1013,2 hPa 0,0 l/m 2 min 0 min 579 W/m 20,9 km/h (4 Bft) 100,00 %
02.07.2016 10:36 15,9 C 25,0 C 21,7 C 85 % 0 lf 1013,1 hPa 0,0 l/m 2 min 0 min 902 W/m 14,6 km/h (3 Bft) 97,87 %
02.07.2016 10:38 16,2 C 27,2 C 22,8 C 85 % 0 lf 1013,0 hPa 0,0 l/m 2 min 0 min 890 W/m 16,7 km/h (3 Bft) 100,00 %
02.07.2016 10:40 16,3 C 26,1 C 22,8 C 85 % 0 lf 1012,9 hPa 0,0 l/m 2 min 0 min 898 W/m 18,8 km/h (3 Bft) 100,00 %
02.07.2016 10:42 16,5 C 26,1 C 22,8 C 83 % 0 lf 1013,1 hPa 0,0 l/m 2 min 0 min 898 W/m 29,3 km/h (5 Bft) 97,83 %
02.07.2016 10:44 16,7 C 23,9 C 21,1 C 82 % 0 lf 1013,0 hPa 0,0 l/m 2 min 0 min 898 W/m 31,4 km/h (5 Bft) 100,00 %
02.07.2016 10:46 16,8 C 24,4 C 21,1 C 81 % 0 lf 1013,1 hPa 0,0 l/m 2 min 0 min 924 W/m 25,1 km/h (4 Bft) 97,87 %
02.07.2016 10:48 16,9 C 23,3 C 21,7 C 80 % 0 lf 1013,1 hPa 0,0 l/m 2 min 0 min 1032 W/m 18,8 km/h (3 Bft) 97,87 %
02.07.2016 10:50 16,9 C 22,2 C 20,6 C 79 % 0 lf 1013,2 hPa 0,0 l/m 2 min 0 min 433 W/m 25,1 km/h (4 Bft) 97,87 %
02.07.2016 10:52 17,0 C 20,0 C 19,4 C 78 % 0 lf 1013,2 hPa 0,0 l/m 0 min 0 min 328 W/m 20,9 km/h (4 Bft) 97,87 %
02.07.2016 10:54 17,0 C 20,0 C 18,9 C 78 % 0 lf 1013,2 hPa 0,0 l/m 0 min 0 min 278 W/m 18,8 km/h (3 Bft) 100,00 %
02.07.2016 10:56 17,0 C 20,0 C 18,9 C 78 % 0 lf 1013,2 hPa 0,0 l/m 0 min 0 min 288 W/m 14,6 km/h (3 Bft) 100,00 %
02.07.2016 10:58 17,0 C 20,0 C 18,9 C 78 % 0 lf 1013,2 hPa 0,0 l/m 0 min 0 min 334 W/m 16,7 km/h (3 Bft) 93,62 %
02.07.2016 11:00 17,0 C 20,0 C 18,9 C 76 % 0 lf 1013,2 hPa 0,0 l/m 0 min 0 min 327 W/m 16,7 km/h (3 Bft) 100,00 %
02.07.2016 11:02 17,1 C 20,6 C 19,4 C 77 % 0 lf 1013,2 hPa 0,0 l/m 0 min 0 min 309 W/m 14,6 km/h (3 Bft) 100,00 %
02.07.2016 11:04 17,1 C 19,4 C 18,3 C 77 % 0 lf 1013,2 hPa 0,0 l/m 0 min 0 min 252 W/m 16,7 km/h (3 Bft) 97,87 %
02.07.2016 11:06 17,1 C 19,4 C 17,8 C 77 % 0 lf 1013,2 hPa 0,0 l/m 0 min 0 min 226 W/m 18,8 km/h (3 Bft) 97,83 %
02.07.2016 11:08 17,1 C 21,7 C 20,0 C 77 % 0 lf 1013,2 hPa 0,0 l/m 0 min 0 min 244 W/m 18,8 km/h (3 Bft) 97,87 %
02.07.2016 11:10 17,1 C 23,3 C 21,1 C 76 % 0 lf 1013,2 hPa 0,0 l/m 2 min 0 min 392 W/m 20,9 km/h (4 Bft) 100,00 %
02.07.2016 11:12 17,2 C 23,3 C 20,6 C 76 % 0 lf 1013,2 hPa 0,0 l/m 2 min 0 min 1034 W/m 23,0 km/h (4 Bft) 97,87 %
02.07.2016 11:14 17,2 C 21,1 C 18,9 C 76 % 0 lf 1013,2 hPa 0,0 l/m 2 min 0 min 639 W/m 20,9 km/h (4 Bft) 97,87 %
02.07.2016 11:16 17,1 C 18,9 C 17,8 C 76 % 0 lf 1013,3 hPa 0,0 l/m 0 min 0 min 168 W/m 18,8 km/h (3 Bft) 93,62 %
02.07.2016 11:18 17,1 C 18,9 C 17,2 C 76 % 0 lf 1013,3 hPa 0,0 l/m 0 min 0 min 173 W/m 14,6 km/h (3 Bft) 97,83 %
02.07.2016 11:20 17,1 C 19,4 C 17,2 C 76 % 0 lf 1013,2 hPa 0,0 l/m 0 min 0 min 236 W/m 16,7 km/h (3 Bft) 97,87 %
02.07.2016 11:22 17,1 C 20,6 C 18,9 C 77 % 0 lf 1013,1 hPa 0,0 l/m 0 min 0 min 206 W/m 12,6 km/h (3 Bft) 97,87 %
02.07.2016 11:24 17,0 C 19,4 C 17,8 C 75 % 0 lf 1013,2 hPa 0,0 l/m 0 min 0 min 154 W/m 14,6 km/h (3 Bft) 97,87 %
02.07.2016 11:26 16,9 C 18,9 C 17,2 C 75 % 0 lf 1013,2 hPa 0,0 l/m 0 min 0 min 141 W/m 20,9 km/h (4 Bft) 93,62 %
02.07.2016 11:28 16,9 C 18,3 C 16,7 C 75 % 0 lf 1013,2 hPa 0,0 l/m 0 min 0 min 149 W/m 25,1 km/h (4 Bft) 97,87 %
02.07.2016 11:30 16,8 C 18,9 C 16,7 C 74 % 0 lf 1013,2 hPa 0,0 l/m 0 min 0 min 181 W/m 14,6 km/h (3 Bft) 97,83 %
02.07.2016 11:32 16,8 C 21,1 C 18,3 C 76 % 0 lf 1013,2 hPa 0,0 l/m 0 min 0 min 211 W/m 16,7 km/h (3 Bft) 95,74 %
02.07.2016 11:34 16,8 C 22,2 C 18,9 C 76 % 0 lf 1013,2 hPa 0,0 l/m 0 min 0 min 207 W/m 14,6 km/h (3 Bft) 97,87 %
02.07.2016 11:36 16,9 C 23,3 C 18,9 C 76 % 0 lf 1013,1 hPa 0,0 l/m 2 min 0 min 485 W/m 18,8 km/h (3 Bft) 97,87 %
02.07.2016 11:38 17,0 C 23,9 C 18,9 C 75 % 0 lf 1013,1 hPa 0,0 l/m 2 min 0 min 969 W/m 23,0 km/h (4 Bft) 95,74 %
02.07.2016 11:40 17,2 C 26,1 C 20,6 C 76 % 0 lf 1013,1 hPa 0,0 l/m 2 min 0 min 896 W/m 23,0 km/h (4 Bft) 97,83 %
02.07.2016 11:42 17,3 C 25,6 C 21,1 C 73 % 0 lf 1013,1 hPa 0,0 l/m 2 min 0 min 887 W/m 31,4 km/h (5 Bft) 97,87 %
02.07.2016 11:44 17,4 C 26,1 C 22,8 C 73 % 0 lf 1013,1 hPa 0,0 l/m 2 min 0 min 892 W/m 29,3 km/h (5 Bft) 95,74 %
02.07.2016 11:46 17,6 C 27,2 C 23,9 C 74 % 0 lf 1013,1 hPa 0,0 l/m 2 min 0 min 910 W/m 14,6 km/h (3 Bft) 93,62 %
02.07.2016 11:48 17,7 C 27,8 C 24,4 C 73 % 0 lf 1013,0 hPa 0,0 l/m 2 min 0 min 920 W/m 25,1 km/h (4 Bft) 95,74 %
02.07.2016 11:50 17,9 C 26,7 C 24,4 C 73 % 0 lf 1013,0 hPa 0,0 l/m 2 min 0 min 900 W/m 27,2 km/h (4 Bft) 95,74 %
02.07.2016 11:52 18,0 C 27,2 C 23,9 C 71 % 0 lf 1012,9 hPa 0,0 l/m 2 min 0 min 914 W/m 20,9 km/h (4 Bft) 95,65 %
02.07.2016 11:54 18,2 C 27,2 C 23,9 C 71 % 0 lf 1012,9 hPa 0,0 l/m 2 min 0 min 939 W/m 20,9 km/h (4 Bft) 91,49 %
02.07.2016 11:56 18,2 C 23,3 C 21,1 C 71 % 0 lf 1012,9 hPa 0,0 l/m 2 min 0 min 505 W/m 27,2 km/h (4 Bft) 97,87 %
02.07.2016 11:58 18,3 C 22,8 C 20,6 C 70 % 0 lf 1012,9 hPa 0,0 l/m 0 min 0 min 188 W/m 23,0 km/h (4 Bft) 93,62 %
02.07.2016 12:00 18,3 C 21,7 C 19,4 C 70 % 0 lf 1012,9 hPa 0,0 l/m 0 min 0 min 173 W/m 20,9 km/h (4 Bft) 93,62 %
02.07.2016 12:02 18,2 C 21,7 C 19,4 C 69 % 0 lf 1013,0 hPa 0,0 l/m 0 min 0 min 185 W/m 18,8 km/h (3 Bft) 91,49 %
02.07.2016 12:04 18,2 C 23,9 C 21,1 C 69 % 0 lf 1013,0 hPa 0,0 l/m 2 min 0 min 776 W/m 23,0 km/h (4 Bft) 93,48 %
02.07.2016 12:06 18,2 C 23,3 C 21,1 C 68 % 0 lf 1013,1 hPa 0,0 l/m 2 min 0 min 721 W/m 27,2 km/h (4 Bft) 91,49 %
02.07.2016 12:08 18,2 C 21,7 C 20,0 C 68 % 0 lf 1013,1 hPa 0,0 l/m 0 min 0 min 333 W/m 20,9 km/h (4 Bft) 91,49 %
02.07.2016 12:10 18,2 C 22,2 C 20,6 C 69 % 0 lf 1013,1 hPa 0,0 l/m 0 min 0 min 385 W/m 14,6 km/h (3 Bft) 91,49 %
02.07.2016 12:12 18,3 C 24,4 C 22,2 C 70 % 0 lf 1013,0 hPa 0,0 l/m 0 min 0 min 376 W/m 23,0 km/h (4 Bft) 93,62 %
02.07.2016 12:14 18,3 C 23,9 C 22,2 C 70 % 0 lf 1013,0 hPa 0,0 l/m 2 min 0 min 992 W/m 31,4 km/h (5 Bft) 93,62 %
02.07.2016 12:16 18,4 C 22,8 C 21,1 C 69 % 0 lf 1013,1 hPa 0,0 l/m 0 min 0 min 246 W/m 27,2 km/h (4 Bft) 93,48 %
02.07.2016 12:18 18,4 C 21,7 C 20,0 C 67 % 0 lf 1013,1 hPa 0,0 l/m 0 min 0 min 243 W/m 27,2 km/h (4 Bft) 89,36 %
02.07.2016 12:20 18,4 C 23,3 C 21,7 C 68 % 0 lf 1013,1 hPa 0,0 l/m 0 min 0 min 243 W/m 25,1 km/h (4 Bft) 89,36 %
02.07.2016 12:22 18,5 C 25,6 C 23,3 C 68 % 0 lf 1013,1 hPa 0,0 l/m 0 min 0 min 243 W/m 33,5 km/h (5 Bft) 93,62 %
02.07.2016 12:24 18,6 C 23,9 C 22,8 C 67 % 0 lf 1013,2 hPa 0,0 l/m 0 min 0 min 243 W/m 25,1 km/h (4 Bft) 91,49 %
02.07.2016 12:26 18,6 C 23,9 C 22,8 C 68 % 0 lf 1013,2 hPa 0,0 l/m 0 min 0 min 305 W/m 29,3 km/h (5 Bft) 93,62 %
02.07.2016 12:28 18,7 C 25,0 C 23,3 C 67 % 0 lf 1013,2 hPa 0,0 l/m 2 min 0 min 938 W/m 25,1 km/h (4 Bft) 93,48 %
02.07.2016 12:30 18,8 C 25,6 C 23,3 C 67 % 0 lf 1013,2 hPa 0,0 l/m 2 min 0 min 1134 W/m 29,3 km/h (5 Bft) 93,62 %
02.07.2016 12:32 18,9 C 23,9 C 22,8 C 67 % 0 lf 1013,2 hPa 0,0 l/m 2 min 0 min 975 W/m 18,8 km/h (3 Bft) 89,36 %
02.07.2016 12:34 18,9 C 23,9 C 21,7 C 65 % 0 lf 1013,2 hPa 0,0 l/m 0 min 0 min 287 W/m 33,5 km/h (5 Bft) 93,62 %
02.07.2016 12:36 18,9 C 23,9 C 21,7 C 65 % 0 lf 1013,1 hPa 0,0 l/m 0 min 0 min 254 W/m 23,0 km/h (4 Bft) 89,36 %
02.07.2016 12:38 19,0 C 25,0 C 21,7 C 67 % 0 lf 1013,1 hPa 0,0 l/m 2 min 0 min 423 W/m 29,3 km/h (5 Bft) 91,49 %
02.07.2016 12:40 19,1 C 26,1 C 21,7 C 65 % 0 lf 1013,1 hPa 0,0 l/m 2 min 0 min 1018 W/m 23,0 km/h (4 Bft) 91,30 %
02.07.2016 12:42 19,2 C 26,7 C 22,2 C 65 % 0 lf 1013,1 hPa 0,0 l/m 2 min 0 min 1049 W/m 25,1 km/h (4 Bft) 95,74 %
02.07.2016 12:44 19,2 C 27,2 C 21,7 C 65 % 0 lf 1013,0 hPa 0,0 l/m 2 min 0 min 1056 W/m 20,9 km/h (4 Bft) 95,74 %
02.07.2016 12:46 19,3 C 27,2 C 21,7 C 65 % 0 lf 1013,0 hPa 0,0 l/m 2 min 0 min 1032 W/m 25,1 km/h (4 Bft) 97,87 %
02.07.2016 12:48 19,4 C 27,8 C 22,2 C 65 % 0 lf 1013,0 hPa 0,0 l/m 2 min 0 min 1041 W/m 23,0 km/h (4 Bft) 93,62 %
02.07.2016 12:50 19,6 C 26,7 C 22,2 C 64 % 0 lf 1013,2 hPa 0,0 l/m 2 min 0 min 963 W/m 27,2 km/h (4 Bft) 97,87 %
02.07.2016 12:52 19,6 C 26,1 C 21,7 C 62 % 0 lf 1013,2 hPa 0,0 l/m 2 min 0 min 830 W/m 37,7 km/h (5 Bft) 93,48 %
02.07.2016 12:54 19,6 C 23,9 C 21,7 C 62 % 0 lf 1013,3 hPa 0,0 l/m 2 min 0 min 820 W/m 33,5 km/h (5 Bft) 95,74 %
02.07.2016 12:56 19,5 C 22,8 C 21,7 C 62 % 0 lf 1013,3 hPa 0,0 l/m 2 min 0 min 676 W/m 37,7 km/h (5 Bft) 91,49 %
02.07.2016 12:58 19,4 C 22,2 C 21,7 C 63 % 0 lf 1013,4 hPa 0,0 l/m 2 min 0 min 494 W/m 27,2 km/h (4 Bft) 97,87 %
02.07.2016 13:00 19,4 C 21,7 C 21,1 C 62 % 0 lf 1013,3 hPa 0,0 l/m 2 min 0 min 446 W/m 29,3 km/h (5 Bft) 97,87 %
02.07.2016 13:02 19,3 C 21,7 C 21,1 C 62 % 0 lf 1013,3 hPa 0,0 l/m 2 min 0 min 472 W/m 29,3 km/h (5 Bft) 100,00 %
02.07.2016 13:04 19,2 C 21,7 C 21,1 C 64 % 0 lf 1013,4 hPa 0,0 l/m 2 min 0 min 450 W/m 31,4 km/h (5 Bft) 100,00 %
02.07.2016 13:06 19,2 C 20,6 C 20,6 C 63 % 0 lf 1013,5 hPa 0,0 l/m 0 min 0 min 353 W/m 33,5 km/h (5 Bft) 100,00 %
02.07.2016 13:08 18,9 C 18,9 C 18,9 C 62 % 0 lf 1013,6 hPa 0,0 l/m 0 min 0 min 257 W/m 41,8 km/h (6 Bft) 97,87 %
02.07.2016 13:10 18,7 C 18,3 C 17,8 C 61 % 0 lf 1013,6 hPa 0,0 l/m 0 min 0 min 195 W/m 41,8 km/h (6 Bft) 100,00 %
02.07.2016 13:12 18,4 C 17,8 C 17,2 C 62 % 0 lf 1013,8 hPa 0,0 l/m 0 min 0 min 179 W/m 41,8 km/h (6 Bft) 97,87 %
02.07.2016 13:14 18,1 C 17,2 C 16,7 C 62 % 0 lf 1013,9 hPa 0,0 l/m 0 min 2 min 192 W/m 39,7 km/h (6 Bft) 97,87 %
02.07.2016 13:16 17,7 C 17,2 C 16,7 C 63 % 0 lf 1013,9 hPa 0,0 l/m 0 min 0 min 195 W/m 37,7 km/h (5 Bft) 100,00 %
02.07.2016 13:18 17,5 C 17,2 C 16,1 C 64 % 1 lf 1013,9 hPa 0,0 l/m 0 min 0 min 184 W/m 25,1 km/h (4 Bft) 100,00 %
02.07.2016 13:20 17,3 C 16,1 C 15,6 C 67 % 4 lf 1013,9 hPa 0,0 l/m 0 min 2 min 178 W/m 23,0 km/h (4 Bft) 97,87 %
02.07.2016 13:22 17,2 C 16,1 C 15,0 C 68 % 3 lf 1014,0 hPa 0,0 l/m 0 min 2 min 182 W/m 25,1 km/h (4 Bft) 97,87 %
02.07.2016 13:24 17,0 C 16,1 C 15,0 C 69 % 0 lf 1014,0 hPa 0,0 l/m 0 min 0 min 190 W/m 27,2 km/h (4 Bft) 97,87 %
02.07.2016 13:26 16,8 C 16,7 C 15,0 C 70 % 4 lf 1013,9 hPa 0,0 l/m 0 min 2 min 215 W/m 25,1 km/h (4 Bft) 100,00 %
02.07.2016 13:28 16,7 C 16,7 C 15,0 C 70 % 10 lf 1013,8 hPa 0,0 l/m 0 min 2 min 270 W/m 16,7 km/h (3 Bft) 97,87 %
02.07.2016 13:30 16,6 C 17,8 C 15,6 C 71 % 2 lf 1013,8 hPa 0,0 l/m 0 min 2 min 400 W/m 16,7 km/h (3 Bft) 97,87 %
02.07.2016 13:32 16,6 C 20,6 C 16,7 C 73 % 0 lf 1013,8 hPa 0,0 l/m 2 min 0 min 475 W/m 12,6 km/h (3 Bft) 95,74 %
02.07.2016 13:34 16,7 C 23,3 C 18,3 C 73 % 0 lf 1013,8 hPa 0,0 l/m 2 min 0 min 490 W/m 10,5 km/h (2 Bft) 95,74 %
02.07.2016 13:36 16,8 C 25,0 C 19,4 C 74 % 0 lf 1013,7 hPa 0,0 l/m 2 min 0 min 1215 W/m 14,6 km/h (3 Bft) 95,74 %
02.07.2016 13:38 16,9 C 25,6 C 20,6 C 73 % 0 lf 1013,9 hPa 0,0 l/m 2 min 0 min 1138 W/m 16,7 km/h (3 Bft) 97,83 %
02.07.2016 13:40 17,1 C 25,0 C 21,1 C 72 % 0 lf 1013,8 hPa 0,0 l/m 2 min 0 min 892 W/m 18,8 km/h (3 Bft) 94,00 %
02.07.2016 13:42 17,3 C 25,6 C 21,1 C 70 % 0 lf 1013,9 hPa 0,0 l/m 2 min 0 min 861 W/m 20,9 km/h (4 Bft) 97,83 %
02.07.2016 13:44 17,5 C 26,1 C 21,7 C 72 % 0 lf 1013,9 hPa 0,0 l/m 2 min 0 min 998 W/m 14,6 km/h (3 Bft) 97,87 %
02.07.2016 13:46 17,7 C 26,7 C 22,2 C 72 % 0 lf 1013,7 hPa 0,0 l/m 2 min 0 min 1021 W/m 18,8 km/h (3 Bft) 97,87 %
02.07.2016 13:48 17,9 C 27,2 C 22,2 C 70 % 0 lf 1013,7 hPa 0,0 l/m 2 min 0 min 961 W/m 8,4 km/h (2 Bft) 93,62 %
02.07.2016 13:50 18,1 C 26,7 C 22,8 C 70 % 0 lf 1013,9 hPa 0,0 l/m 2 min 0 min 758 W/m 18,8 km/h (3 Bft) 97,87 %
02.07.2016 13:52 18,3 C 24,4 C 22,2 C 68 % 0 lf 1013,7 hPa 0,0 l/m 2 min 0 min 712 W/m 27,2 km/h (4 Bft) 97,87 %
02.07.2016 13:54 18,4 C 23,3 C 21,7 C 69 % 0 lf 1013,8 hPa 0,0 l/m 2 min 0 min 722 W/m 37,7 km/h (5 Bft) 95,65 %
02.07.2016 13:56 18,4 C 22,2 C 21,1 C 68 % 0 lf 1013,8 hPa 0,0 l/m 2 min 0 min 722 W/m 37,7 km/h (5 Bft) 95,74 %
02.07.2016 13:58 18,4 C 21,1 C 20,0 C 68 % 0 lf 1013,7 hPa 0,0 l/m 0 min 0 min 366 W/m 37,7 km/h (5 Bft) 95,74 %
02.07.2016 14:00 18,2 C 19,4 C 19,4 C 68 % 0 lf 1013,9 hPa 0,0 l/m 0 min 0 min 303 W/m 37,7 km/h (5 Bft) 97,87 %
02.07.2016 14:02 18,1 C 18,9 C 18,9 C 68 % 0 lf 1014,0 hPa 0,0 l/m 0 min 0 min 293 W/m 41,8 km/h (6 Bft) 95,74 %
02.07.2016 14:04 17,9 C 18,3 C 18,3 C 69 % 0 lf 1014,0 hPa 0,0 l/m 0 min 0 min 281 W/m 39,7 km/h (6 Bft) 97,87 %
02.07.2016 14:06 17,7 C 17,8 C 17,8 C 68 % 0 lf 1014,1 hPa 0,0 l/m 0 min 0 min 281 W/m 37,7 km/h (5 Bft) 97,83 %
02.07.2016 14:08 17,5 C 17,2 C 17,8 C 68 % 0 lf 1014,1 hPa 0,0 l/m 0 min 0 min 294 W/m 41,8 km/h (6 Bft) 95,74 %
02.07.2016 14:10 17,3 C 17,2 C 17,2 C 68 % 0 lf 1014,2 hPa 0,0 l/m 0 min 0 min 304 W/m 31,4 km/h (5 Bft) 93,62 %
02.07.2016 14:12 17,1 C 17,2 C 17,2 C 68 % 0 lf 1014,1 hPa 0,0 l/m 0 min 0 min 315 W/m 33,5 km/h (5 Bft) 97,87 %
02.07.2016 14:14 16,9 C 17,8 C 17,2 C 69 % 0 lf 1014,2 hPa 0,0 l/m 0 min 0 min 344 W/m 35,6 km/h (5 Bft) 100,00 %
02.07.2016 14:16 16,8 C 18,3 C 17,8 C 70 % 0 lf 1014,2 hPa 0,0 l/m 0 min 0 min 391 W/m 23,0 km/h (4 Bft) 93,62 %
02.07.2016 14:18 16,7 C 18,3 C 17,8 C 71 % 0 lf 1014,1 hPa 0,0 l/m 2 min 0 min 429 W/m 31,4 km/h (5 Bft) 100,00 %
02.07.2016 14:20 16,6 C 18,9 C 18,3 C 72 % 0 lf 1014,1 hPa 0,0 l/m 2 min 0 min 430 W/m 23,0 km/h (4 Bft) 97,87 %
02.07.2016 14:22 16,6 C 18,3 C 18,3 C 72 % 0 lf 1014,1 hPa 0,0 l/m 2 min 0 min 481 W/m 29,3 km/h (5 Bft) 100,00 %
02.07.2016 14:24 16,5 C 19,4 C 19,4 C 72 % 0 lf 1014,1 hPa 0,0 l/m 2 min 0 min 551 W/m 27,2 km/h (4 Bft) 100,00 %
02.07.2016 14:26 16,5 C 21,1 C 22,2 C 73 % 0 lf 1014,1 hPa 0,0 l/m 2 min 0 min 527 W/m 23,0 km/h (4 Bft) 97,87 %
02.07.2016 14:28 16,6 C 23,3 C 24,4 C 74 % 0 lf 1014,0 hPa 0,0 l/m 2 min 0 min 811 W/m 20,9 km/h (4 Bft) 97,87 %
02.07.2016 14:30 16,7 C 24,4 C 25,6 C 75 % 0 lf 1014,1 hPa 0,0 l/m 2 min 0 min 1066 W/m 41,8 km/h (6 Bft) 97,83 %
02.07.2016 14:32 16,9 C 25,0 C 25,6 C 72 % 0 lf 1014,1 hPa 0,0 l/m 2 min 0 min 1110 W/m 35,6 km/h (5 Bft) 100,00 %
02.07.2016 14:34 17,0 C 24,4 C 25,6 C 71 % 0 lf 1014,1 hPa 0,0 l/m 2 min 0 min 1157 W/m 29,3 km/h (5 Bft) 100,00 %
02.07.2016 14:36 17,2 C 24,4 C 25,6 C 71 % 0 lf 1014,1 hPa 0,0 l/m 2 min 0 min 1157 W/m 33,5 km/h (5 Bft) 100,00 %
02.07.2016 14:38 17,4 C 23,3 C 25,6 C 70 % 0 lf 1014,1 hPa 0,0 l/m 2 min 0 min 1157 W/m 35,6 km/h (5 Bft) 95,74 %
02.07.2016 14:40 17,5 C 22,8 C 25,0 C 69 % 0 lf 1014,1 hPa 0,0 l/m 2 min 0 min 1157 W/m 33,5 km/h (5 Bft) 95,65 %
02.07.2016 14:42 17,6 C 24,4 C 26,1 C 69 % 0 lf 1014,1 hPa 0,0 l/m 2 min 0 min 1054 W/m 29,3 km/h (5 Bft) 97,87 %
02.07.2016 14:44 17,8 C 25,0 C 27,2 C 70 % 0 lf 1014,1 hPa 0,0 l/m 2 min 0 min 985 W/m 20,9 km/h (4 Bft) 97,87 %
02.07.2016 14:46 18,1 C 25,0 C 27,2 C 70 % 0 lf 1013,9 hPa 0,0 l/m 2 min 0 min 971 W/m 31,4 km/h (5 Bft) 95,74 %
02.07.2016 14:48 18,2 C 25,6 C 26,7 C 69 % 0 lf 1014,0 hPa 0,0 l/m 2 min 0 min 975 W/m 27,2 km/h (4 Bft) 95,74 %
02.07.2016 14:50 18,4 C 26,7 C 27,8 C 68 % 0 lf 1014,1 hPa 0,0 l/m 2 min 0 min 965 W/m 27,2 km/h (4 Bft) 95,74 %
02.07.2016 14:52 18,6 C 25,0 C 26,7 C 68 % 0 lf 1014,0 hPa 0,0 l/m 2 min 0 min 1025 W/m 27,2 km/h (4 Bft) 95,65 %
02.07.2016 14:54 18,7 C 25,0 C 27,2 C 67 % 0 lf 1014,0 hPa 0,0 l/m 2 min 0 min 1025 W/m 35,6 km/h (5 Bft) 95,74 %
02.07.2016 14:56 18,7 C 24,4 C 26,7 C 66 % 0 lf 1014,0 hPa 0,0 l/m 2 min 0 min 1073 W/m 29,3 km/h (5 Bft) 91,49 %
02.07.2016 14:58 18,8 C 23,9 C 25,6 C 66 % 0 lf 1014,0 hPa 0,0 l/m 2 min 0 min 824 W/m 27,2 km/h (4 Bft) 93,62 %
02.07.2016 15:00 18,9 C 25,0 C 26,7 C 66 % 0 lf 1014,0 hPa 0,0 l/m 2 min 0 min 744 W/m 29,3 km/h (5 Bft) 95,74 %
02.07.2016 15:02 19,0 C 25,6 C 28,3 C 67 % 0 lf 1014,0 hPa 0,0 l/m 2 min 0 min 1019 W/m 25,1 km/h (4 Bft) 95,74 %
02.07.2016 15:04 19,1 C 26,1 C 28,9 C 66 % 0 lf 1014,0 hPa 0,0 l/m 2 min 0 min 950 W/m 25,1 km/h (4 Bft) 95,65 %
02.07.2016 15:06 19,2 C 25,0 C 27,8 C 64 % 0 lf 1014,0 hPa 0,0 l/m 2 min 0 min 924 W/m 33,5 km/h (5 Bft) 93,62 %
02.07.2016 15:08 19,3 C 24,4 C 27,2 C 65 % 0 lf 1014,0 hPa 0,0 l/m 2 min 0 min 856 W/m 27,2 km/h (4 Bft) 93,62 %
02.07.2016 15:10 19,3 C 23,3 C 25,6 C 63 % 0 lf 1014,0 hPa 0,0 l/m 2 min 0 min 775 W/m 27,2 km/h (4 Bft) 95,74 %
02.07.2016 15:12 19,3 C 23,3 C 25,6 C 63 % 0 lf 1014,0 hPa 0,0 l/m 0 min 0 min 385 W/m 31,4 km/h (5 Bft) 89,36 %
02.07.2016 15:14 19,2 C 23,9 C 26,7 C 64 % 0 lf 1014,0 hPa 0,0 l/m 2 min 0 min 988 W/m 25,1 km/h (4 Bft) 93,62 %
02.07.2016 15:16 19,3 C 23,9 C 27,2 C 63 % 0 lf 1014,0 hPa 0,0 l/m 2 min 0 min 1058 W/m 37,7 km/h (5 Bft) 91,30 %
02.07.2016 15:18 19,3 C 24,4 C 27,8 C 62 % 0 lf 1014,0 hPa 0,0 l/m 2 min 0 min 973 W/m 35,6 km/h (5 Bft) 91,49 %
02.07.2016 15:20 19,3 C 25,0 C 27,8 C 61 % 0 lf 1014,0 hPa 0,0 l/m 2 min 0 min 924 W/m 39,7 km/h (6 Bft) 95,74 %
02.07.2016 15:22 19,3 C 24,4 C 28,3 C 62 % 0 lf 1014,1 hPa 0,0 l/m 2 min 0 min 888 W/m 35,6 km/h (5 Bft) 95,74 %
02.07.2016 15:24 19,4 C 24,4 C 27,8 C 60 % 0 lf 1014,0 hPa 0,0 l/m 2 min 0 min 875 W/m 35,6 km/h (5 Bft) 93,62 %
02.07.2016 15:26 19,4 C 23,3 C 27,8 C 59 % 0 lf 1014,0 hPa 0,0 l/m 2 min 0 min 871 W/m 37,7 km/h (5 Bft) 95,74 %
02.07.2016 15:28 19,4 C 24,4 C 27,8 C 60 % 0 lf 1014,0 hPa 0,0 l/m 2 min 0 min 862 W/m 29,3 km/h (5 Bft) 93,48 %
02.07.2016 15:30 19,4 C 24,4 C 27,2 C 59 % 0 lf 1014,0 hPa 0,0 l/m 2 min 0 min 858 W/m 37,7 km/h (5 Bft) 95,74 %
02.07.2016 15:32 19,4 C 24,4 C 27,8 C 59 % 0 lf 1014,1 hPa 0,0 l/m 2 min 0 min 853 W/m 33,5 km/h (5 Bft) 93,62 %
02.07.2016 15:34 19,5 C 23,9 C 28,3 C 60 % 0 lf 1014,1 hPa 0,0 l/m 2 min 0 min 852 W/m 27,2 km/h (4 Bft) 95,74 %
02.07.2016 15:36 19,6 C 24,4 C 28,3 C 60 % 0 lf 1014,1 hPa 0,0 l/m 2 min 0 min 847 W/m 37,7 km/h (5 Bft) 97,87 %
02.07.2016 15:38 19,6 C 24,4 C 28,3 C 60 % 0 lf 1014,1 hPa 0,0 l/m 2 min 0 min 858 W/m 33,5 km/h (5 Bft) 95,74 %
02.07.2016 15:40 19,6 C 23,3 C 26,1 C 59 % 0 lf 1014,3 hPa 0,0 l/m 2 min 0 min 906 W/m 33,5 km/h (5 Bft) 97,83 %
02.07.2016 15:42 19,6 C 22,8 C 26,7 C 59 % 0 lf 1014,3 hPa 0,0 l/m 2 min 0 min 908 W/m 33,5 km/h (5 Bft) 95,74 %
02.07.2016 15:44 19,5 C 23,3 C 26,7 C 59 % 0 lf 1014,2 hPa 0,0 l/m 2 min 0 min 812 W/m 31,4 km/h (5 Bft) 95,74 %
02.07.2016 15:46 19,4 C 21,7 C 25,0 C 58 % 0 lf 1014,2 hPa 0,0 l/m 0 min 0 min 262 W/m 37,7 km/h (5 Bft) 93,62 %
02.07.2016 15:48 19,4 C 22,8 C 26,1 C 59 % 0 lf 1014,2 hPa 0,0 l/m 2 min 0 min 746 W/m 33,5 km/h (5 Bft) 93,62 %
02.07.2016 15:50 19,4 C 23,9 C 27,2 C 60 % 0 lf 1014,3 hPa 0,0 l/m 2 min 0 min 830 W/m 35,6 km/h (5 Bft) 95,74 %
02.07.2016 15:52 19,4 C 23,9 C 27,2 C 61 % 0 lf 1014,3 hPa 0,0 l/m 2 min 0 min 829 W/m 39,7 km/h (6 Bft) 95,65 %
02.07.2016 15:54 19,5 C 24,4 C 28,3 C 62 % 0 lf 1014,3 hPa 0,0 l/m 2 min 0 min 853 W/m 23,0 km/h (4 Bft) 93,62 %
02.07.2016 15:56 19,6 C 23,9 C 27,8 C 61 % 0 lf 1014,3 hPa 0,0 l/m 2 min 0 min 867 W/m 27,2 km/h (4 Bft) 95,74 %
02.07.2016 15:58 19,6 C 24,4 C 27,8 C 61 % 0 lf 1014,3 hPa 0,0 l/m 2 min 0 min 848 W/m 29,3 km/h (5 Bft) 95,74 %
02.07.2016 16:00 19,7 C 23,9 C 27,2 C 60 % 0 lf 1014,4 hPa 0,0 l/m 2 min 0 min 940 W/m 35,6 km/h (5 Bft) 95,74 %
02.07.2016 16:02 19,7 C 21,1 C 23,9 C 59 % 0 lf 1014,4 hPa 0,0 l/m 2 min 0 min 525 W/m 33,5 km/h (5 Bft) 93,62 %
02.07.2016 16:04 19,6 C 20,6 C 21,7 C 59 % 0 lf 1014,4 hPa 0,0 l/m 0 min 0 min 194 W/m 31,4 km/h (5 Bft) 93,48 %
02.07.2016 16:06 19,5 C 20,0 C 20,0 C 60 % 0 lf 1014,6 hPa 0,0 l/m 0 min 0 min 110 W/m 37,7 km/h (5 Bft) 93,62 %
02.07.2016 16:08 19,3 C 18,3 C 18,3 C 59 % 0 lf 1014,8 hPa 0,0 l/m 0 min 0 min 78 W/m 43,9 km/h (6 Bft) 95,74 %
02.07.2016 16:10 19,0 C 17,8 C 17,8 C 59 % 0 lf 1014,8 hPa 0,0 l/m 0 min 0 min 110 W/m 35,6 km/h (5 Bft) 95,74 %
02.07.2016 16:12 18,7 C 17,2 C 17,2 C 60 % 0 lf 1015,1 hPa 0,0 l/m 0 min 0 min 106 W/m 35,6 km/h (5 Bft) 95,74 %
02.07.2016 16:14 18,4 C 16,7 C 16,7 C 61 % 0 lf 1015,2 hPa 0,0 l/m 0 min 0 min 82 W/m 46,0 km/h (6 Bft) 93,62 %
02.07.2016 16:16 18,0 C 15,6 C 16,1 C 61 % 0 lf 1015,3 hPa 0,0 l/m 0 min 0 min 67 W/m 39,7 km/h (6 Bft) 93,48 %
02.07.2016 16:18 17,6 C 15,6 C 15,6 C 62 % 1 lf 1015,6 hPa 0,0 l/m 0 min 0 min 62 W/m 39,7 km/h (6 Bft) 95,74 %
02.07.2016 16:20 17,2 C 15,0 C 15,0 C 63 % 3 lf 1015,5 hPa 0,0 l/m 0 min 2 min 61 W/m 39,7 km/h (6 Bft) 95,74 %
02.07.2016 16:22 16,7 C 14,4 C 13,3 C 66 % 15 lf 1015,6 hPa 0,0 l/m 0 min 2 min 61 W/m 41,8 km/h (6 Bft) 95,74 %
02.07.2016 16:24 16,4 C 13,3 C 12,2 C 68 % 15 lf 1015,6 hPa 0,0 l/m 0 min 2 min 70 W/m 29,3 km/h (5 Bft) 100,00 %
02.07.2016 16:26 16,1 C 12,2 C 11,7 C 70 % 15 lf 1015,5 hPa 0,2 l/m 0 min 2 min 93 W/m 16,7 km/h (3 Bft) 100,00 %
02.07.2016 16:28 15,8 C 12,2 C 11,7 C 72 % 15 lf 1015,3 hPa 0,0 l/m 0 min 2 min 129 W/m 20,9 km/h (4 Bft) 97,87 %
02.07.2016 16:30 15,6 C 12,2 C 12,2 C 74 % 15 lf 1015,4 hPa 0,2 l/m 0 min 2 min 188 W/m 14,6 km/h (3 Bft) 97,87 %
02.07.2016 16:32 15,4 C 12,8 C 12,2 C 75 % 15 lf 1015,3 hPa 0,0 l/m 0 min 0 min 248 W/m 18,8 km/h (3 Bft) 100,00 %
02.07.2016 16:34 15,3 C 13,3 C 13,3 C 76 % 15 lf 1015,3 hPa 0,0 l/m 0 min 0 min 305 W/m 16,7 km/h (3 Bft) 100,00 %
02.07.2016 16:36 15,2 C 13,3 C 13,3 C 77 % 15 lf 1015,3 hPa 0,0 l/m 2 min 0 min 356 W/m 12,6 km/h (3 Bft) 97,87 %
02.07.2016 16:38 15,1 C 13,9 C 13,9 C 78 % 15 lf 1015,2 hPa 0,0 l/m 2 min 0 min 358 W/m 8,4 km/h (2 Bft) 95,65 %
02.07.2016 16:40 15,0 C 15,0 C 14,4 C 79 % 15 lf 1015,2 hPa 0,0 l/m 2 min 0 min 459 W/m 12,6 km/h (3 Bft) 100,00 %
02.07.2016 16:42 14,9 C 15,0 C 15,0 C 79 % 15 lf 1015,3 hPa 0,0 l/m 2 min 0 min 456 W/m 16,7 km/h (3 Bft) 100,00 %
02.07.2016 16:44 14,9 C 16,1 C 16,1 C 80 % 15 lf 1015,3 hPa 0,0 l/m 2 min 0 min 510 W/m 16,7 km/h (3 Bft) 100,00 %
02.07.2016 16:46 14,9 C 16,1 C 17,2 C 80 % 12 lf 1015,3 hPa 0,0 l/m 2 min 0 min 664 W/m 12,6 km/h (3 Bft) 91,49 %
02.07.2016 16:48 15,1 C 17,2 C 17,2 C 81 % 4 lf 1015,3 hPa 0,0 l/m 2 min 0 min 500 W/m 14,6 km/h (3 Bft) 97,87 %
02.07.2016 16:50 15,1 C 17,8 C 17,8 C 82 % 0 lf 1015,4 hPa 0,0 l/m 2 min 0 min 615 W/m 14,6 km/h (3 Bft) 97,83 %
02.07.2016 16:52 15,2 C 17,8 C 17,8 C 82 % 0 lf 1015,4 hPa 0,0 l/m 2 min 0 min 432 W/m 16,7 km/h (3 Bft) 97,87 %
02.07.2016 16:54 15,3 C 18,9 C 18,9 C 82 % 0 lf 1015,5 hPa 0,0 l/m 2 min 0 min 546 W/m 14,6 km/h (3 Bft) 95,74 %
02.07.2016 16:56 15,4 C 20,0 C 20,0 C 82 % 0 lf 1015,6 hPa 0,0 l/m 2 min 0 min 744 W/m 20,9 km/h (4 Bft) 93,62 %
02.07.2016 16:58 15,5 C 20,6 C 21,1 C 81 % 0 lf 1015,4 hPa 0,0 l/m 2 min 0 min 681 W/m 16,7 km/h (3 Bft) 100,00 %
02.07.2016 17:00 15,6 C 20,6 C 21,1 C 82 % 0 lf 1015,4 hPa 0,0 l/m 2 min 0 min 471 W/m 16,7 km/h (3 Bft) 100,00 %
02.07.2016 17:02 15,7 C 19,4 C 20,6 C 81 % 0 lf 1015,4 hPa 0,0 l/m 2 min 0 min 471 W/m 20,9 km/h (4 Bft) 97,83 %
02.07.2016 17:04 15,8 C 20,0 C 22,2 C 79 % 0 lf 1015,4 hPa 0,0 l/m 2 min 0 min 572 W/m 23,0 km/h (4 Bft) 97,87 %
02.07.2016 17:06 15,9 C 20,6 C 23,3 C 78 % 0 lf 1015,3 hPa 0,0 l/m 2 min 0 min 714 W/m 18,8 km/h (3 Bft) 95,74 %
02.07.2016 17:08 16,0 C 21,1 C 24,4 C 78 % 0 lf 1015,4 hPa 0,0 l/m 2 min 0 min 690 W/m 16,7 km/h (3 Bft) 95,74 %
02.07.2016 17:10 16,1 C 21,1 C 23,9 C 78 % 0 lf 1015,4 hPa 0,0 l/m 2 min 0 min 690 W/m 16,7 km/h (3 Bft) 97,87 %
02.07.2016 17:12 16,2 C 22,2 C 22,8 C 78 % 0 lf 1015,3 hPa 0,0 l/m 2 min 0 min 682 W/m 14,6 km/h (3 Bft) 95,74 %
02.07.2016 17:14 16,3 C 20,6 C 20,6 C 78 % 0 lf 1015,3 hPa 0,0 l/m 2 min 0 min 530 W/m 16,7 km/h (3 Bft) 93,48 %
02.07.2016 17:16 16,4 C 19,4 C 20,0 C 77 % 0 lf 1015,2 hPa 0,0 l/m 0 min 0 min 238 W/m 12,6 km/h (3 Bft) 97,87 %
02.07.2016 17:18 16,4 C 19,4 C 19,4 C 77 % 0 lf 1015,3 hPa 0,0 l/m 2 min 0 min 388 W/m 18,8 km/h (3 Bft) 95,74 %
02.07.2016 17:20 16,6 C 20,6 C 19,4 C 76 % 0 lf 1015,3 hPa 0,0 l/m 2 min 0 min 508 W/m 12,6 km/h (3 Bft) 95,74 %
02.07.2016 17:22 16,7 C 20,0 C 19,4 C 78 % 0 lf 1015,3 hPa 0,0 l/m 2 min 0 min 421 W/m 10,5 km/h (2 Bft) 97,87 %
02.07.2016 17:24 16,7 C 19,4 C 19,4 C 77 % 0 lf 1015,4 hPa 0,0 l/m 0 min 0 min 276 W/m 18,8 km/h (3 Bft) 95,74 %
02.07.2016 17:26 16,7 C 18,9 C 18,9 C 76 % 0 lf 1015,4 hPa 0,0 l/m 2 min 0 min 315 W/m 23,0 km/h (4 Bft) 97,83 %
02.07.2016 17:28 16,8 C 18,3 C 18,3 C 76 % 0 lf 1015,5 hPa 0,0 l/m 2 min 0 min 296 W/m 20,9 km/h (4 Bft) 91,49 %
02.07.2016 17:30 16,8 C 18,3 C 18,9 C 75 % 0 lf 1015,4 hPa 0,0 l/m 2 min 0 min 351 W/m 16,7 km/h (3 Bft) 97,87 %
02.07.2016 17:32 16,8 C 18,9 C 19,4 C 76 % 0 lf 1015,2 hPa 0,0 l/m 2 min 0 min 391 W/m 12,6 km/h (3 Bft) 93,62 %
02.07.2016 17:34 16,8 C 19,4 C 20,0 C 76 % 0 lf 1015,3 hPa 0,0 l/m 2 min 0 min 383 W/m 16,7 km/h (3 Bft) 97,87 %
02.07.2016 17:36 16,9 C 20,6 C 20,6 C 76 % 0 lf 1015,2 hPa 0,0 l/m 2 min 0 min 541 W/m 14,6 km/h (3 Bft) 95,65 %
02.07.2016 17:38 17,0 C 20,6 C 20,0 C 76 % 0 lf 1015,2 hPa 0,0 l/m 2 min 0 min 629 W/m 12,6 km/h (3 Bft) 95,74 %
02.07.2016 17:40 17,1 C 20,0 C 19,4 C 76 % 0 lf 1015,2 hPa 0,0 l/m 2 min 0 min 362 W/m 14,6 km/h (3 Bft) 95,74 %
02.07.2016 17:42 17,2 C 20,6 C 19,4 C 75 % 0 lf 1015,2 hPa 0,0 l/m 2 min 0 min 381 W/m 18,8 km/h (3 Bft) 97,87 %
02.07.2016 17:44 17,2 C 19,4 C 18,9 C 74 % 0 lf 1015,2 hPa 0,0 l/m 2 min 0 min 350 W/m 27,2 km/h (4 Bft) 100,00 %
02.07.2016 17:46 17,3 C 20,0 C 18,9 C 73 % 0 lf 1015,1 hPa 0,0 l/m 2 min 0 min 352 W/m 31,4 km/h (5 Bft) 97,87 %
02.07.2016 17:48 17,3 C 20,0 C 18,9 C 72 % 0 lf 1015,2 hPa 0,0 l/m 2 min 0 min 604 W/m 27,2 km/h (4 Bft) 97,83 %
02.07.2016 17:50 17,4 C 19,4 C 18,3 C 71 % 0 lf 1015,1 hPa 0,0 l/m 2 min 0 min 442 W/m 27,2 km/h (4 Bft) 95,74 %
02.07.2016 17:52 17,4 C 20,0 C 17,8 C 70 % 0 lf 1015,1 hPa 0,0 l/m 2 min 0 min 453 W/m 16,7 km/h (3 Bft) 97,22 %
02.07.2016 17:54 17,5 C 18,9 C 17,2 C 69 % 0 lf 1015,1 hPa 0,0 l/m 2 min 0 min 405 W/m 25,1 km/h (4 Bft) 95,74 %
02.07.2016 17:56 17,5 C 18,9 C 17,2 C 68 % 0 lf 1015,1 hPa 0,0 l/m 2 min 0 min 285 W/m 25,1 km/h (4 Bft) 95,74 %
02.07.2016 17:58 17,5 C 18,3 C 17,2 C 67 % 0 lf 1015,1 hPa 0,0 l/m 0 min 0 min 241 W/m 23,0 km/h (4 Bft) 93,48 %
02.07.2016 18:00 17,5 C 18,3 C 17,2 C 67 % 0 lf 1015,1 hPa 0,0 l/m 2 min 0 min 301 W/m 29,3 km/h (5 Bft) 95,74 %
02.07.2016 18:02 17,5 C 18,3 C 17,2 C 68 % 0 lf 1015,0 hPa 0,0 l/m 2 min 0 min 304 W/m 20,9 km/h (4 Bft) 95,74 %
02.07.2016 18:04 17,4 C 18,3 C 17,2 C 69 % 0 lf 1015,0 hPa 0,0 l/m 2 min 0 min 290 W/m 18,8 km/h (3 Bft) 94,34 %
02.07.2016 18:06 17,4 C 18,3 C 17,2 C 69 % 0 lf 1015,0 hPa 0,0 l/m 0 min 0 min 233 W/m 16,7 km/h (3 Bft) 89,36 %
02.07.2016 18:08 17,4 C 18,3 C 17,2 C 70 % 0 lf 1015,0 hPa 0,0 l/m 2 min 0 min 270 W/m 16,7 km/h (3 Bft) 95,74 %
02.07.2016 18:10 17,4 C 17,8 C 17,2 C 70 % 0 lf 1015,1 hPa 0,0 l/m 2 min 0 min 295 W/m 16,7 km/h (3 Bft) 95,74 %
02.07.2016 18:12 17,4 C 18,3 C 17,8 C 71 % 0 lf 1015,1 hPa 0,0 l/m 2 min 0 min 284 W/m 14,6 km/h (3 Bft) 91,49 %
02.07.2016 18:14 17,4 C 18,9 C 17,8 C 71 % 0 lf 1015,2 hPa 0,0 l/m 0 min 0 min 227 W/m 14,6 km/h (3 Bft) 95,65 %
02.07.2016 18:16 17,4 C 18,3 C 17,8 C 71 % 0 lf 1015,3 hPa 0,0 l/m 0 min 0 min 224 W/m 20,9 km/h (4 Bft) 95,74 %
02.07.2016 18:18 17,3 C 18,3 C 17,8 C 70 % 0 lf 1015,3 hPa 0,0 l/m 2 min 0 min 330 W/m 23,0 km/h (4 Bft) 95,74 %
02.07.2016 18:20 17,3 C 18,3 C 17,2 C 70 % 0 lf 1015,3 hPa 0,0 l/m 2 min 0 min 598 W/m 23,0 km/h (4 Bft) 93,62 %
02.07.2016 18:22 17,3 C 18,3 C 17,2 C 71 % 0 lf 1015,3 hPa 0,0 l/m 2 min 0 min 538 W/m 14,6 km/h (3 Bft) 91,49 %
02.07.2016 18:24 17,3 C 18,3 C 17,2 C 71 % 0 lf 1015,3 hPa 0,0 l/m 2 min 0 min 500 W/m 20,9 km/h (4 Bft) 95,74 %
02.07.2016 18:26 17,3 C 18,3 C 16,7 C 71 % 0 lf 1015,3 hPa 0,0 l/m 2 min 0 min 481 W/m 16,7 km/h (3 Bft) 95,65 %
02.07.2016 18:28 17,3 C 18,3 C 16,7 C 71 % 0 lf 1015,4 hPa 0,0 l/m 2 min 0 min 467 W/m 23,0 km/h (4 Bft) 93,62 %
02.07.2016 18:30 17,3 C 17,8 C 16,1 C 70 % 0 lf 1015,4 hPa 0,0 l/m 2 min 0 min 459 W/m 20,9 km/h (4 Bft) 95,74 %
02.07.2016 18:32 17,3 C 17,8 C 16,1 C 71 % 0 lf 1015,4 hPa 0,0 l/m 2 min 0 min 439 W/m 20,9 km/h (4 Bft) 95,74 %
02.07.2016 18:34 17,3 C 17,8 C 16,1 C 71 % 0 lf 1015,4 hPa 0,0 l/m 2 min 0 min 326 W/m 18,8 km/h (3 Bft) 95,74 %
02.07.2016 18:36 17,3 C 17,8 C 16,1 C 71 % 0 lf 1015,4 hPa 0,0 l/m 2 min 0 min 303 W/m 14,6 km/h (3 Bft) 93,48 %
02.07.2016 18:38 17,3 C 17,8 C 16,1 C 70 % 0 lf 1015,5 hPa 0,0 l/m 2 min 0 min 422 W/m 23,0 km/h (4 Bft) 91,49 %
02.07.2016 18:40 17,3 C 17,8 C 16,1 C 71 % 0 lf 1015,5 hPa 0,0 l/m 2 min 0 min 441 W/m 20,9 km/h (4 Bft) 91,49 %
02.07.2016 18:42 17,3 C 17,8 C 16,1 C 70 % 0 lf 1015,4 hPa 0,0 l/m 2 min 0 min 438 W/m 16,7 km/h (3 Bft) 93,62 %
02.07.2016 18:44 17,3 C 17,8 C 16,1 C 71 % 0 lf 1015,5 hPa 0,0 l/m 2 min 0 min 427 W/m 20,9 km/h (4 Bft) 95,74 %
02.07.2016 18:46 17,3 C 17,8 C 16,1 C 71 % 0 lf 1015,5 hPa 0,0 l/m 2 min 0 min 421 W/m 27,2 km/h (4 Bft) 95,74 %
02.07.2016 18:48 17,2 C 17,8 C 16,1 C 70 % 0 lf 1015,4 hPa 0,0 l/m 2 min 0 min 413 W/m 23,0 km/h (4 Bft) 95,65 %
02.07.2016 18:50 17,2 C 17,8 C 16,1 C 71 % 0 lf 1015,5 hPa 0,0 l/m 2 min 0 min 407 W/m 20,9 km/h (4 Bft) 95,74 %
02.07.2016 18:52 17,2 C 17,8 C 15,6 C 70 % 0 lf 1015,5 hPa 0,0 l/m 2 min 0 min 399 W/m 20,9 km/h (4 Bft) 98,00 %
02.07.2016 18:54 17,2 C 17,8 C 15,6 C 71 % 0 lf 1015,4 hPa 0,0 l/m 2 min 0 min 393 W/m 20,9 km/h (4 Bft) 97,87 %
02.07.2016 18:56 17,2 C 17,8 C 15,6 C 71 % 0 lf 1015,5 hPa 0,0 l/m 2 min 0 min 388 W/m 23,0 km/h (4 Bft) 93,62 %
02.07.2016 18:58 17,2 C 17,8 C 15,6 C 71 % 0 lf 1015,5 hPa 0,0 l/m 2 min 0 min 377 W/m 18,8 km/h (3 Bft) 97,87 %
02.07.2016 19:00 17,1 C 17,8 C 15,6 C 70 % 0 lf 1015,5 hPa 0,0 l/m 2 min 0 min 359 W/m 23,0 km/h (4 Bft) 97,83 %
02.07.2016 19:02 17,1 C 17,8 C 15,6 C 72 % 0 lf 1015,6 hPa 0,0 l/m 2 min 0 min 344 W/m 16,7 km/h (3 Bft) 97,87 %
02.07.2016 19:04 17,1 C 17,8 C 15,6 C 71 % 0 lf 1015,6 hPa 0,0 l/m 2 min 0 min 358 W/m 18,8 km/h (3 Bft) 95,74 %
02.07.2016 19:06 17,1 C 17,8 C 15,6 C 71 % 0 lf 1015,6 hPa 0,0 l/m 2 min 0 min 351 W/m 20,9 km/h (4 Bft) 93,62 %
02.07.2016 19:08 17,1 C 17,8 C 16,1 C 71 % 0 lf 1015,6 hPa 0,0 l/m 2 min 0 min 342 W/m 16,7 km/h (3 Bft) 97,87 %
02.07.2016 19:10 17,2 C 17,8 C 16,1 C 71 % 0 lf 1015,6 hPa 0,0 l/m 2 min 0 min 340 W/m 16,7 km/h (3 Bft) 95,74 %
02.07.2016 19:12 17,2 C 17,8 C 16,1 C 71 % 0 lf 1015,6 hPa 0,0 l/m 2 min 0 min 328 W/m 8,4 km/h (2 Bft) 95,65 %
02.07.2016 19:14 17,2 C 17,8 C 16,1 C 72 % 0 lf 1015,6 hPa 0,0 l/m 2 min 0 min 249 W/m 14,6 km/h (3 Bft) 97,87 %
02.07.2016 19:16 17,2 C 17,8 C 16,1 C 72 % 0 lf 1015,7 hPa 0,0 l/m 0 min 0 min 95 W/m 10,5 km/h (2 Bft) 97,87 %
02.07.2016 19:18 17,2 C 17,8 C 16,1 C 72 % 0 lf 1015,7 hPa 0,0 l/m 0 min 0 min 125 W/m 18,8 km/h (3 Bft) 97,87 %
02.07.2016 19:20 17,2 C 17,8 C 16,1 C 72 % 0 lf 1015,7 hPa 0,0 l/m 2 min 0 min 198 W/m 12,6 km/h (3 Bft) 95,74 %
02.07.2016 19:22 17,2 C 18,3 C 16,7 C 71 % 0 lf 1015,7 hPa 0,0 l/m 2 min 0 min 401 W/m 20,9 km/h (4 Bft) 95,92 %
02.07.2016 19:24 17,2 C 18,3 C 16,7 C 71 % 0 lf 1015,7 hPa 0,0 l/m 2 min 0 min 375 W/m 16,7 km/h (3 Bft) 100,00 %
02.07.2016 19:26 17,3 C 18,3 C 16,7 C 71 % 0 lf 1015,6 hPa 0,0 l/m 2 min 0 min 355 W/m 16,7 km/h (3 Bft) 97,87 %
02.07.2016 19:28 17,3 C 18,3 C 16,7 C 70 % 0 lf 1015,7 hPa 0,0 l/m 2 min 0 min 352 W/m 27,2 km/h (4 Bft) 100,00 %
02.07.2016 19:30 17,3 C 18,3 C 16,7 C 69 % 0 lf 1015,7 hPa 0,0 l/m 2 min 0 min 287 W/m 14,6 km/h (3 Bft) 100,00 %
02.07.2016 19:32 17,3 C 17,8 C 16,7 C 69 % 0 lf 1015,7 hPa 0,0 l/m 0 min 0 min 117 W/m 16,7 km/h (3 Bft) 95,74 %
02.07.2016 19:34 17,4 C 17,8 C 16,7 C 69 % 0 lf 1015,7 hPa 0,0 l/m 0 min 0 min 100 W/m 16,7 km/h (3 Bft) 97,87 %
02.07.2016 19:36 17,4 C 17,8 C 16,1 C 69 % 0 lf 1015,7 hPa 0,0 l/m 0 min 0 min 85 W/m 29,3 km/h (5 Bft) 97,87 %
02.07.2016 19:38 17,4 C 17,8 C 16,1 C 69 % 0 lf 1015,7 hPa 0,0 l/m 0 min 0 min 97 W/m 27,2 km/h (4 Bft) 97,87 %
02.07.2016 19:40 17,3 C 17,8 C 16,1 C 69 % 0 lf 1015,8 hPa 0,0 l/m 0 min 0 min 101 W/m 14,6 km/h (3 Bft) 97,83 %
02.07.2016 19:42 17,3 C 17,8 C 16,7 C 69 % 0 lf 1015,9 hPa 0,0 l/m 0 min 0 min 109 W/m 23,0 km/h (4 Bft) 93,62 %
02.07.2016 19:44 17,3 C 17,8 C 16,7 C 69 % 0 lf 1015,8 hPa 0,0 l/m 0 min 0 min 112 W/m 16,7 km/h (3 Bft) 97,87 %
02.07.2016 19:46 17,3 C 17,8 C 16,7 C 69 % 0 lf 1015,7 hPa 0,0 l/m 0 min 0 min 114 W/m 18,8 km/h (3 Bft) 95,74 %
02.07.2016 19:48 17,3 C 17,8 C 16,7 C 70 % 0 lf 1015,7 hPa 0,0 l/m 0 min 0 min 110 W/m 14,6 km/h (3 Bft) 93,62 %
02.07.2016 19:50 17,3 C 17,2 C 16,7 C 70 % 0 lf 1015,7 hPa 0,0 l/m 0 min 0 min 106 W/m 10,5 km/h (2 Bft) 93,62 %
02.07.2016 19:52 17,3 C 17,8 C 16,7 C 71 % 0 lf 1015,8 hPa 0,0 l/m 0 min 0 min 101 W/m 10,5 km/h (2 Bft) 97,83 %
02.07.2016 19:54 17,3 C 17,2 C 16,7 C 72 % 0 lf 1015,8 hPa 0,0 l/m 0 min 0 min 97 W/m 14,6 km/h (3 Bft) 97,87 %
02.07.2016 19:56 17,3 C 17,2 C 16,1 C 71 % 0 lf 1015,8 hPa 0,0 l/m 2 min 0 min 161 W/m 16,7 km/h (3 Bft) 95,74 %
02.07.2016 19:58 17,3 C 17,2 C 16,1 C 71 % 0 lf 1015,8 hPa 0,0 l/m 2 min 0 min 154 W/m 16,7 km/h (3 Bft) 97,87 %
02.07.2016 20:00 17,2 C 17,2 C 15,6 C 72 % 0 lf 1015,8 hPa 0,0 l/m 0 min 0 min 82 W/m 12,6 km/h (3 Bft) 91,49 %
02.07.2016 20:02 17,2 C 16,7 C 15,6 C 72 % 0 lf 1015,9 hPa 0,0 l/m 0 min 0 min 71 W/m 12,6 km/h (3 Bft) 91,49 %
02.07.2016 20:04 17,2 C 16,7 C 15,6 C 72 % 0 lf 1015,9 hPa 0,0 l/m 2 min 0 min 150 W/m 12,6 km/h (3 Bft) 97,83 %
02.07.2016 20:06 17,2 C 16,7 C 15,6 C 72 % 0 lf 1015,8 hPa 0,0 l/m 2 min 0 min 124 W/m 12,6 km/h (3 Bft) 95,74 %
02.07.2016 20:08 17,1 C 16,7 C 15,6 C 72 % 0 lf 1015,9 hPa 0,0 l/m 2 min 0 min 132 W/m 8,4 km/h (2 Bft) 87,23 %
02.07.2016 20:10 17,1 C 16,7 C 15,6 C 72 % 0 lf 1015,8 hPa 0,0 l/m 2 min 0 min 132 W/m 8,4 km/h (2 Bft) 93,62 %
02.07.2016 20:12 17,1 C 16,7 C 15,6 C 72 % 0 lf 1015,8 hPa 0,0 l/m 0 min 0 min 61 W/m 10,5 km/h (2 Bft) 93,62 %
02.07.2016 20:14 17,1 C 16,7 C 15,0 C 72 % 0 lf 1015,8 hPa 0,0 l/m 0 min 0 min 48 W/m 10,5 km/h (2 Bft) 95,65 %
02.07.2016 20:16 17,0 C 16,7 C 15,0 C 72 % 0 lf 1015,8 hPa 0,0 l/m 0 min 0 min 43 W/m 8,4 km/h (2 Bft) 95,74 %
02.07.2016 20:18 17,0 C 16,7 C 15,0 C 72 % 0 lf 1015,8 hPa 0,0 l/m 0 min 0 min 45 W/m 6,3 km/h (2 Bft) 93,62 %
02.07.2016 20:20 17,0 C 16,7 C 15,0 C 73 % 0 lf 1015,9 hPa 0,0 l/m 0 min 0 min 50 W/m 10,5 km/h (2 Bft) 95,74 %
02.07.2016 20:22 16,9 C 16,7 C 15,0 C 73 % 0 lf 1015,8 hPa 0,0 l/m 0 min 0 min 49 W/m 10,5 km/h (2 Bft) 95,74 %
02.07.2016 20:24 16,9 C 16,7 C 15,6 C 73 % 0 lf 1015,9 hPa 0,0 l/m 0 min 0 min 43 W/m 8,4 km/h (2 Bft) 97,87 %
02.07.2016 20:26 16,9 C 16,7 C 15,6 C 73 % 0 lf 1015,8 hPa 0,0 l/m 0 min 0 min 51 W/m 10,5 km/h (2 Bft) 97,83 %
02.07.2016 20:28 16,9 C 16,7 C 15,6 C 73 % 0 lf 1015,8 hPa 0,0 l/m 0 min 0 min 61 W/m 6,3 km/h (2 Bft) 95,74 %
02.07.2016 20:30 16,8 C 16,7 C 15,6 C 73 % 0 lf 1015,8 hPa 0,0 l/m 0 min 0 min 58 W/m 8,4 km/h (2 Bft) 97,87 %
02.07.2016 20:32 16,8 C 16,7 C 15,6 C 73 % 0 lf 1015,8 hPa 0,0 l/m 0 min 0 min 67 W/m 8,4 km/h (2 Bft) 97,87 %
02.07.2016 20:34 16,8 C 16,7 C 15,6 C 73 % 0 lf 1015,8 hPa 0,0 l/m 2 min 0 min 90 W/m 8,4 km/h (2 Bft) 97,87 %
02.07.2016 20:36 16,8 C 16,7 C 15,6 C 73 % 0 lf 1015,9 hPa 0,0 l/m 2 min 0 min 101 W/m 8,4 km/h (2 Bft) 97,87 %
02.07.2016 20:38 16,8 C 16,7 C 15,6 C 73 % 0 lf 1015,9 hPa 0,0 l/m 2 min 0 min 114 W/m 8,4 km/h (2 Bft) 95,65 %
02.07.2016 20:40 16,8 C 16,7 C 15,6 C 74 % 0 lf 1016,0 hPa 0,0 l/m 2 min 0 min 124 W/m 8,4 km/h (2 Bft) 100,00 %
02.07.2016 20:42 16,7 C 16,7 C 15,6 C 74 % 0 lf 1016,0 hPa 0,0 l/m 2 min 0 min 118 W/m 10,5 km/h (2 Bft) 95,74 %
02.07.2016 20:44 16,7 C 16,7 C 15,6 C 74 % 0 lf 1016,0 hPa 0,0 l/m 2 min 0 min 98 W/m 10,5 km/h (2 Bft) 97,87 %
02.07.2016 20:46 16,7 C 16,7 C 15,6 C 74 % 0 lf 1016,1 hPa 0,0 l/m 2 min 0 min 83 W/m 10,5 km/h (2 Bft) 100,00 %
02.07.2016 20:48 16,7 C 16,7 C 15,0 C 74 % 0 lf 1016,1 hPa 0,0 l/m 2 min 0 min 72 W/m 8,4 km/h (2 Bft) 100,00 %
02.07.2016 20:50 16,7 C 16,7 C 15,0 C 74 % 0 lf 1016,1 hPa 0,0 l/m 2 min 0 min 69 W/m 6,3 km/h (2 Bft) 100,00 %
02.07.2016 20:52 16,7 C 16,7 C 15,0 C 74 % 0 lf 1016,1 hPa 0,0 l/m 2 min 0 min 67 W/m 8,4 km/h (2 Bft) 97,22 %
02.07.2016 20:54 16,7 C 16,1 C 15,0 C 74 % 0 lf 1016,1 hPa 0,0 l/m 2 min 0 min 65 W/m 6,3 km/h (2 Bft) 100,00 %
02.07.2016 20:56 16,6 C 16,1 C 15,0 C 74 % 0 lf 1016,2 hPa 0,0 l/m 2 min 0 min 60 W/m 4,2 km/h (1 Bft) 97,83 %
02.07.2016 20:58 16,6 C 16,1 C 14,4 C 74 % 0 lf 1016,2 hPa 0,0 l/m 0 min 0 min 51 W/m 4,2 km/h (1 Bft) 100,00 %
02.07.2016 21:00 16,6 C 16,1 C 14,4 C 75 % 0 lf 1016,1 hPa 0,0 l/m 0 min 0 min 44 W/m 6,3 km/h (2 Bft) 97,87 %
02.07.2016 21:02 16,6 C 16,1 C 14,4 C 75 % 0 lf 1016,2 hPa 0,0 l/m 0 min 0 min 42 W/m 8,4 km/h (2 Bft) 95,74 %
02.07.2016 21:04 16,6 C 16,1 C 14,4 C 75 % 0 lf 1016,3 hPa 0,0 l/m 0 min 0 min 37 W/m 6,3 km/h (2 Bft) 97,87 %
02.07.2016 21:06 16,6 C 15,6 C 14,4 C 75 % 0 lf 1016,4 hPa 0,0 l/m 0 min 0 min 32 W/m 6,3 km/h (2 Bft) 100,00 %
02.07.2016 21:08 16,5 C 15,6 C 13,9 C 75 % 0 lf 1016,4 hPa 0,0 l/m 0 min 0 min 30 W/m 8,4 km/h (2 Bft) 100,00 %
02.07.2016 21:10 16,5 C 15,6 C 13,9 C 75 % 0 lf 1016,3 hPa 0,0 l/m 0 min 0 min 26 W/m 6,3 km/h (2 Bft) 97,87 %
02.07.2016 21:12 16,5 C 15,6 C 13,9 C 75 % 0 lf 1016,3 hPa 0,0 l/m 0 min 0 min 23 W/m 6,3 km/h (2 Bft) 97,87 %
02.07.2016 21:14 16,4 C 15,6 C 13,9 C 76 % 0 lf 1016,4 hPa 0,0 l/m 0 min 0 min 21 W/m 6,3 km/h (2 Bft) 100,00 %
02.07.2016 21:16 16,4 C 15,6 C 13,9 C 76 % 0 lf 1016,4 hPa 0,0 l/m 0 min 0 min 19 W/m 6,3 km/h (2 Bft) 100,00 %
02.07.2016 21:18 16,4 C 15,0 C 13,3 C 76 % 0 lf 1016,4 hPa 0,0 l/m 0 min 0 min 18 W/m 6,3 km/h (2 Bft) 95,65 %
02.07.2016 21:20 16,3 C 15,0 C 13,3 C 76 % 0 lf 1016,4 hPa 0,0 l/m 0 min 0 min 17 W/m 6,3 km/h (2 Bft) 100,00 %
02.07.2016 21:22 16,3 C 15,0 C 13,3 C 76 % 0 lf 1016,4 hPa 0,0 l/m 0 min 0 min 15 W/m 4,2 km/h (1 Bft) 98,11 %
02.07.2016 21:24 16,3 C 15,0 C 13,3 C 76 % 0 lf 1016,4 hPa 0,0 l/m 0 min 0 min 14 W/m 4,2 km/h (1 Bft) 97,87 %
02.07.2016 21:26 16,2 C 15,0 C 13,3 C 76 % 0 lf 1016,4 hPa 0,0 l/m 0 min 0 min 12 W/m 6,3 km/h (2 Bft) 97,87 %
02.07.2016 21:28 16,2 C 15,0 C 13,3 C 76 % 0 lf 1016,4 hPa 0,0 l/m 0 min 0 min 11 W/m 4,2 km/h (1 Bft) 93,62 %
02.07.2016 21:30 16,2 C 15,0 C 13,9 C 77 % 0 lf 1016,5 hPa 0,0 l/m 0 min 0 min 11 W/m 6,3 km/h (2 Bft) 95,74 %
02.07.2016 21:32 16,1 C 15,0 C 13,9 C 77 % 0 lf 1016,5 hPa 0,0 l/m 0 min 0 min 9 W/m 6,3 km/h (2 Bft) 93,48 %
02.07.2016 21:34 16,1 C 15,0 C 13,9 C 77 % 0 lf 1016,5 hPa 0,0 l/m 0 min 0 min 9 W/m 8,4 km/h (2 Bft) 95,74 %
02.07.2016 21:36 16,1 C 15,6 C 13,9 C 77 % 0 lf 1016,6 hPa 0,0 l/m 0 min 0 min 7 W/m 8,4 km/h (2 Bft) 91,49 %
02.07.2016 21:38 16,0 C 15,6 C 13,9 C 78 % 0 lf 1016,6 hPa 0,0 l/m 0 min 0 min 7 W/m 8,4 km/h (2 Bft) 93,62 %
02.07.2016 21:40 15,9 C 15,0 C 13,9 C 78 % 0 lf 1016,6 hPa 0,0 l/m 0 min 0 min 7 W/m 6,3 km/h (2 Bft) 95,74 %
02.07.2016 21:42 15,9 C 15,6 C 13,9 C 78 % 0 lf 1016,6 hPa 0,0 l/m 0 min 0 min 7 W/m 8,4 km/h (2 Bft) 93,62 %
02.07.2016 21:44 15,9 C 15,6 C 13,9 C 78 % 0 lf 1016,6 hPa 0,0 l/m 0 min 0 min 7 W/m 8,4 km/h (2 Bft) 91,30 %
02.07.2016 21:46 15,9 C 15,0 C 13,9 C 78 % 0 lf 1016,6 hPa 0,0 l/m 0 min 0 min 7 W/m 6,3 km/h (2 Bft) 93,62 %
02.07.2016 21:48 15,8 C 15,0 C 13,9 C 78 % 0 lf 1016,6 hPa 0,0 l/m 0 min 0 min 7 W/m 10,5 km/h (2 Bft) 95,74 %
02.07.2016 21:50 15,8 C 15,0 C 13,9 C 78 % 0 lf 1016,6 hPa 0,0 l/m 0 min 0 min 7 W/m 8,4 km/h (2 Bft) 93,62 %
02.07.2016 21:52 15,8 C 15,0 C 13,9 C 79 % 0 lf 1016,7 hPa 0,0 l/m 0 min 0 min 7 W/m 10,5 km/h (2 Bft) 95,74 %
02.07.2016 21:54 15,7 C 15,0 C 13,3 C 79 % 0 lf 1016,7 hPa 0,0 l/m 0 min 0 min 5 W/m 8,4 km/h (2 Bft) 91,49 %
02.07.2016 21:56 15,7 C 15,0 C 13,3 C 79 % 0 lf 1016,7 hPa 0,0 l/m 0 min 0 min 5 W/m 12,6 km/h (3 Bft) 93,48 %
02.07.2016 21:58 15,7 C 15,0 C 13,3 C 79 % 0 lf 1016,7 hPa 0,0 l/m 0 min 0 min 5 W/m 6,3 km/h (2 Bft) 93,62 %
02.07.2016 22:00 15,7 C 14,4 C 13,3 C 79 % 0 lf 1016,8 hPa 0,0 l/m 0 min 0 min 5 W/m 6,3 km/h (2 Bft) 93,62 %
02.07.2016 22:02 15,6 C 14,4 C 13,3 C 79 % 0 lf 1016,8 hPa 0,0 l/m 0 min 0 min 5 W/m 8,4 km/h (2 Bft) 89,36 %
02.07.2016 22:04 15,6 C 14,4 C 13,3 C 79 % 0 lf 1016,8 hPa 0,0 l/m 0 min 0 min 1 W/m 8,4 km/h (2 Bft) 93,62 %
02.07.2016 22:06 15,6 C 14,4 C 13,3 C 79 % 0 lf 1016,8 hPa 0,0 l/m 0 min 0 min 0 W/m 6,3 km/h (2 Bft) 91,49 %
02.07.2016 22:08 15,6 C 14,4 C 13,3 C 79 % 0 lf 1016,9 hPa 0,0 l/m 0 min 0 min 0 W/m 8,4 km/h (2 Bft) 93,48 %
02.07.2016 22:10 15,5 C 14,4 C 13,3 C 79 % 0 lf 1016,7 hPa 0,0 l/m 0 min 0 min 0 W/m 8,4 km/h (2 Bft) 93,62 %
02.07.2016 22:12 15,5 C 15,0 C 13,3 C 80 % 0 lf 1016,9 hPa 0,0 l/m 0 min 0 min 0 W/m 8,4 km/h (2 Bft) 93,62 %
02.07.2016 22:14 15,5 C 15,0 C 13,3 C 80 % 0 lf 1016,8 hPa 0,0 l/m 0 min 0 min 0 W/m 6,3 km/h (2 Bft) 91,49 %
02.07.2016 22:16 15,4 C 15,0 C 13,3 C 80 % 0 lf 1016,9 hPa 0,0 l/m 0 min 0 min 0 W/m 6,3 km/h (2 Bft) 97,87 %
02.07.2016 22:18 15,4 C 14,4 C 13,3 C 80 % 0 lf 1016,9 hPa 0,0 l/m 0 min 0 min 0 W/m 10,5 km/h (2 Bft) 93,62 %
02.07.2016 22:20 15,4 C 14,4 C 13,3 C 80 % 0 lf 1016,9 hPa 0,0 l/m 0 min 0 min 0 W/m 8,4 km/h (2 Bft) 95,65 %
02.07.2016 22:22 15,4 C 14,4 C 13,3 C 80 % 0 lf 1016,9 hPa 0,0 l/m 0 min 0 min 0 W/m 8,4 km/h (2 Bft) 95,74 %
02.07.2016 22:24 15,3 C 14,4 C 13,3 C 80 % 0 lf 1017,0 hPa 0,0 l/m 0 min 0 min 0 W/m 10,5 km/h (2 Bft) 95,74 %
02.07.2016 22:26 15,3 C 14,4 C 13,3 C 80 % 0 lf 1017,0 hPa 0,0 l/m 0 min 0 min 0 W/m 10,5 km/h (2 Bft) 97,87 %
02.07.2016 22:28 15,3 C 14,4 C 12,8 C 80 % 0 lf 1017,0 hPa 0,0 l/m 0 min 0 min 0 W/m 8,4 km/h (2 Bft) 93,62 %
02.07.2016 22:30 15,2 C 14,4 C 12,8 C 80 % 0 lf 1017,0 hPa 0,0 l/m 0 min 0 min 0 W/m 8,4 km/h (2 Bft) 93,62 %
02.07.2016 22:32 15,2 C 14,4 C 12,8 C 79 % 0 lf 1017,1 hPa 0,0 l/m 0 min 0 min 0 W/m 6,3 km/h (2 Bft) 95,65 %
02.07.2016 22:34 15,2 C 14,4 C 12,8 C 80 % 0 lf 1017,1 hPa 0,0 l/m 0 min 0 min 0 W/m 8,4 km/h (2 Bft) 97,87 %
02.07.2016 22:36 15,2 C 14,4 C 12,8 C 80 % 0 lf 1017,1 hPa 0,0 l/m 0 min 0 min 0 W/m 6,3 km/h (2 Bft) 93,62 %
02.07.2016 22:38 15,1 C 14,4 C 12,8 C 80 % 0 lf 1017,1 hPa 0,0 l/m 0 min 0 min 0 W/m 6,3 km/h (2 Bft) 97,87 %
02.07.2016 22:40 15,1 C 14,4 C 12,8 C 80 % 0 lf 1017,1 hPa 0,0 l/m 0 min 0 min 0 W/m 10,5 km/h (2 Bft) 97,87 %
02.07.2016 22:42 15,1 C 14,4 C 12,8 C 79 % 0 lf 1017,1 hPa 0,0 l/m 0 min 0 min 0 W/m 12,6 km/h (3 Bft) 95,74 %
02.07.2016 22:44 15,0 C 14,4 C 12,8 C 79 % 0 lf 1017,1 hPa 0,0 l/m 0 min 0 min 0 W/m 10,5 km/h (2 Bft) 97,83 %
02.07.2016 22:46 15,0 C 14,4 C 12,8 C 79 % 0 lf 1017,1 hPa 0,0 l/m 0 min 0 min 0 W/m 6,3 km/h (2 Bft) 95,74 %
02.07.2016 22:48 14,9 C 14,4 C 12,8 C 79 % 0 lf 1017,1 hPa 0,0 l/m 0 min 0 min 0 W/m 8,4 km/h (2 Bft) 93,62 %
02.07.2016 22:50 14,9 C 14,4 C 12,8 C 79 % 0 lf 1017,1 hPa 0,0 l/m 0 min 0 min 0 W/m 8,4 km/h (2 Bft) 97,87 %
02.07.2016 22:52 14,9 C 14,4 C 12,8 C 79 % 0 lf 1017,1 hPa 0,0 l/m 0 min 0 min 0 W/m 8,4 km/h (2 Bft) 98,00 %
02.07.2016 22:54 14,9 C 14,4 C 12,8 C 79 % 0 lf 1017,1 hPa 0,0 l/m 0 min 0 min 0 W/m 12,6 km/h (3 Bft) 95,65 %
02.07.2016 22:56 14,9 C 14,4 C 12,8 C 79 % 0 lf 1017,1 hPa 0,0 l/m 0 min 0 min 0 W/m 12,6 km/h (3 Bft) 97,87 %
02.07.2016 22:58 14,8 C 14,4 C 12,8 C 79 % 0 lf 1017,1 hPa 0,0 l/m 0 min 0 min 0 W/m 8,4 km/h (2 Bft) 97,87 %
02.07.2016 23:00 14,8 C 14,4 C 12,8 C 79 % 0 lf 1017,1 hPa 0,0 l/m 0 min 0 min 0 W/m 8,4 km/h (2 Bft) 91,49 %
02.07.2016 23:02 14,8 C 13,9 C 12,8 C 79 % 0 lf 1017,1 hPa 0,0 l/m 0 min 0 min 0 W/m 8,4 km/h (2 Bft) 95,74 %
02.07.2016 23:04 14,8 C 13,9 C 12,8 C 79 % 0 lf 1017,1 hPa 0,0 l/m 0 min 0 min 0 W/m 8,4 km/h (2 Bft) 93,62 %
02.07.2016 23:06 14,8 C 13,9 C 12,2 C 79 % 0 lf 1017,1 hPa 0,0 l/m 0 min 0 min 0 W/m 6,3 km/h (2 Bft) 97,83 %
02.07.2016 23:08 14,8 C 13,9 C 12,2 C 79 % 0 lf 1017,1 hPa 0,0 l/m 0 min 0 min 0 W/m 4,2 km/h (1 Bft) 97,87 %
02.07.2016 23:10 14,7 C 13,9 C 12,2 C 79 % 0 lf 1017,1 hPa 0,0 l/m 0 min 0 min 0 W/m 6,3 km/h (2 Bft) 95,74 %
02.07.2016 23:12 14,7 C 13,9 C 12,2 C 79 % 0 lf 1017,2 hPa 0,0 l/m 0 min 0 min 0 W/m 8,4 km/h (2 Bft) 95,74 %
02.07.2016 23:14 14,7 C 13,9 C 12,2 C 79 % 0 lf 1017,1 hPa 0,0 l/m 0 min 0 min 0 W/m 6,3 km/h (2 Bft) 97,87 %
02.07.2016 23:16 14,7 C 13,9 C 12,2 C 79 % 0 lf 1017,2 hPa 0,0 l/m 0 min 0 min 0 W/m 8,4 km/h (2 Bft) 97,83 %
02.07.2016 23:18 14,6 C 13,9 C 12,2 C 79 % 0 lf 1017,2 hPa 0,0 l/m 0 min 0 min 0 W/m 8,4 km/h (2 Bft) 97,87 %
02.07.2016 23:20 14,6 C 13,9 C 12,2 C 79 % 0 lf 1017,2 hPa 0,0 l/m 0 min 0 min 0 W/m 12,6 km/h (3 Bft) 97,87 %
02.07.2016 23:22 14,6 C 13,9 C 12,2 C 79 % 0 lf 1017,3 hPa 0,0 l/m 0 min 0 min 0 W/m 14,6 km/h (3 Bft) 95,92 %
02.07.2016 23:24 14,5 C 13,9 C 12,2 C 79 % 0 lf 1017,3 hPa 0,0 l/m 0 min 0 min 0 W/m 12,6 km/h (3 Bft) 100,00 %
02.07.2016 23:26 14,5 C 13,9 C 12,2 C 79 % 0 lf 1017,3 hPa 0,0 l/m 0 min 0 min 0 W/m 8,4 km/h (2 Bft) 97,87 %
02.07.2016 23:28 14,4 C 13,9 C 12,2 C 79 % 0 lf 1017,3 hPa 0,0 l/m 0 min 0 min 0 W/m 8,4 km/h (2 Bft) 93,62 %
02.07.2016 23:30 14,4 C 13,9 C 12,2 C 79 % 0 lf 1017,4 hPa 0,0 l/m 0 min 0 min 0 W/m 12,6 km/h (3 Bft) 97,87 %
02.07.2016 23:32 14,4 C 13,9 C 12,2 C 79 % 0 lf 1017,6 hPa 0,0 l/m 0 min 0 min 0 W/m 14,6 km/h (3 Bft) 95,74 %
02.07.2016 23:34 14,4 C 13,9 C 12,2 C 79 % 0 lf 1017,6 hPa 0,0 l/m 0 min 0 min 0 W/m 14,6 km/h (3 Bft) 100,00 %
02.07.2016 23:36 14,4 C 13,9 C 12,2 C 80 % 0 lf 1017,5 hPa 0,0 l/m 0 min 0 min 0 W/m 12,6 km/h (3 Bft) 97,87 %
02.07.2016 23:38 14,3 C 13,9 C 12,2 C 80 % 0 lf 1017,5 hPa 0,0 l/m 0 min 0 min 0 W/m 8,4 km/h (2 Bft) 100,00 %
02.07.2016 23:40 14,3 C 13,9 C 12,2 C 80 % 0 lf 1017,5 hPa 0,0 l/m 0 min 0 min 0 W/m 20,9 km/h (4 Bft) 97,87 %
02.07.2016 23:42 14,2 C 13,9 C 12,2 C 79 % 0 lf 1017,5 hPa 0,0 l/m 0 min 0 min 0 W/m 18,8 km/h (3 Bft) 100,00 %
02.07.2016 23:44 14,2 C 13,9 C 12,2 C 79 % 0 lf 1017,5 hPa 0,0 l/m 0 min 0 min 0 W/m 14,6 km/h (3 Bft) 100,00 %
02.07.2016 23:46 14,2 C 13,9 C 12,2 C 79 % 0 lf 1017,5 hPa 0,0 l/m 0 min 0 min 0 W/m 8,4 km/h (2 Bft) 100,00 %
02.07.2016 23:48 14,2 C 13,9 C 12,2 C 79 % 0 lf 1017,5 hPa 0,0 l/m 0 min 0 min 0 W/m 4,2 km/h (1 Bft) 97,87 %
02.07.2016 23:50 14,2 C 13,3 C 11,7 C 79 % 0 lf 1017,5 hPa 0,0 l/m 0 min 0 min 0 W/m 6,3 km/h (2 Bft) 97,87 %
02.07.2016 23:52 14,2 C 13,3 C 11,7 C 79 % 0 lf 1017,6 hPa 0,0 l/m 0 min 0 min 0 W/m 4,2 km/h (1 Bft) 100,00 %
02.07.2016 23:54 14,2 C 12,8 C 11,7 C 79 % 0 lf 1017,6 hPa 0,0 l/m 0 min 0 min 0 W/m 4,2 km/h (1 Bft) 95,74 %
02.07.2016 23:56 14,2 C 12,8 C 11,1 C 79 % 0 lf 1017,6 hPa 0,0 l/m 0 min 0 min 0 W/m 0,0 km/h (0 Bft) 97,87 %
02.07.2016 23:58 14,2 C 12,8 C 11,1 C 79 % 0 lf 1017,6 hPa 0,0 l/m 0 min 0 min 1 W/m 2,1 km/h (1 Bft) 97,87 %
_ Min-Zeit 05:34 16:26 23:56 15:46 00:00 00:26 - - - - 01:06 00:56
Minimum _ 13,1 C 12,2 C 11,1 C 58 % 0 lf 1009,5 hPa - - - - 0,0 km/h (0 Bft) 86,96 %
_ Max-Zeit 16:00 11:48 15:04 03:32 00:32 23:32 01:18 09:42 00:26 13:36 16:14 00:22
Maximum _ 19,7 C 27,8 C 28,9 C 96 % 15 lf 1017,6 hPa 0,6 l/m 2 min 2 min 1215 W/m 46,0 km/h
W-NW (6 Bft)
100,00 %
Durchschnitt _ 16,1 C 17,2 C 16,2 C 81 % 4 lf 1013,4 hPa #6,2 l/m #7:20 h #2:32 h 340 W/m 18,9 km/h (3 Bft) 96,12 %
© 2016 W. Hausmann